Wetterdaten: Mittwoch, 01.05.2013
Datum Zeit Temp. Aussen +5cm Feuchte Auss Luftdruck Regen Sonnenschein Regendauer UV Solar Windben
01.05.2013 00:00 10,7 C 9,6 C 68 % 1023,2 hPa 0,0 l/m 0 min 0 min 0,0 UV-I 0 W/m 7,7 km/h (2 Bft)
01.05.2013 00:02 10,7 C 9,6 C 68 % 1023,1 hPa 0,0 l/m 0 min 0 min 0,0 UV-I 0 W/m 0,0 km/h (0 Bft)
01.05.2013 00:06 10,7 C 9,6 C 69 % 1023,1 hPa 0,0 l/m 0 min 0 min 0,0 UV-I 0 W/m 7,7 km/h (2 Bft)
01.05.2013 00:08 10,7 C 9,6 C 69 % 1023,0 hPa 0,0 l/m 0 min 0 min 0,0 UV-I 0 W/m 7,7 km/h (2 Bft)
01.05.2013 00:10 10,6 C 9,6 C 69 % 1023,0 hPa 0,0 l/m 0 min 0 min 0,0 UV-I 0 W/m 10,3 km/h (2 Bft)
01.05.2013 00:12 10,6 C 9,6 C 69 % 1023,1 hPa 0,0 l/m 0 min 0 min 0,0 UV-I 0 W/m 10,3 km/h (2 Bft)
01.05.2013 00:14 10,6 C 9,6 C 69 % 1023,1 hPa 0,0 l/m 0 min 0 min 0,0 UV-I 0 W/m 10,3 km/h (2 Bft)
01.05.2013 00:16 10,6 C 9,6 C 69 % 1023,1 hPa 0,0 l/m 0 min 0 min 0,0 UV-I 0 W/m 7,7 km/h (2 Bft)
01.05.2013 00:18 10,6 C 9,6 C 69 % 1023,1 hPa 0,0 l/m 0 min 0 min 0,0 UV-I 0 W/m 0,0 km/h (0 Bft)
01.05.2013 00:20 10,6 C 9,6 C 70 % 1023,2 hPa 0,0 l/m 0 min 0 min 0,0 UV-I 0 W/m 7,7 km/h (2 Bft)
01.05.2013 00:22 10,6 C 9,6 C 70 % 1023,2 hPa 0,0 l/m 0 min 0 min 0,0 UV-I 0 W/m 12,9 km/h (3 Bft)
01.05.2013 00:24 10,6 C 9,6 C 70 % 1023,2 hPa 0,0 l/m 0 min 0 min 0,0 UV-I 0 W/m 10,3 km/h (2 Bft)
01.05.2013 00:26 10,6 C 9,6 C 70 % 1023,2 hPa 0,0 l/m 0 min 0 min 0,0 UV-I 0 W/m 7,7 km/h (2 Bft)
01.05.2013 00:28 10,6 C 9,6 C 70 % 1023,2 hPa 0,0 l/m 0 min 0 min 0,0 UV-I 0 W/m 10,3 km/h (2 Bft)
01.05.2013 00:30 10,6 C 9,6 C 70 % 1023,2 hPa 0,0 l/m 0 min 0 min 0,0 UV-I 0 W/m 0,0 km/h (0 Bft)
01.05.2013 00:32 10,6 C 9,6 C 71 % 1023,3 hPa 0,0 l/m 0 min 0 min 0,0 UV-I 0 W/m 10,3 km/h (2 Bft)
01.05.2013 00:34 10,6 C 9,6 C 71 % 1023,3 hPa 0,0 l/m 0 min 0 min 0,0 UV-I 0 W/m 7,7 km/h (2 Bft)
01.05.2013 00:36 10,6 C 9,6 C 71 % 1023,3 hPa 0,0 l/m 0 min 0 min 0,0 UV-I 0 W/m 7,7 km/h (2 Bft)
01.05.2013 00:38 10,6 C 9,6 C 71 % 1023,3 hPa 0,0 l/m 0 min 0 min 0,0 UV-I 0 W/m 0,0 km/h (0 Bft)
01.05.2013 00:40 10,6 C 9,0 C 71 % 1023,4 hPa 0,0 l/m 0 min 0 min 0,0 UV-I 0 W/m 0,0 km/h (0 Bft)
01.05.2013 00:42 10,5 C 9,0 C 71 % 1023,4 hPa 0,0 l/m 0 min 0 min 0,0 UV-I 0 W/m 0,0 km/h (0 Bft)
01.05.2013 00:44 10,5 C 9,0 C 71 % 1023,3 hPa 0,0 l/m 0 min 0 min 0,0 UV-I 0 W/m 5,1 km/h (1 Bft)
01.05.2013 00:46 10,5 C 9,0 C 71 % 1023,3 hPa 0,0 l/m 0 min 0 min 0,0 UV-I 0 W/m 2,6 km/h (1 Bft)
01.05.2013 00:48 10,5 C 9,0 C 71 % 1023,3 hPa 0,0 l/m 0 min 0 min 0,0 UV-I 0 W/m 7,7 km/h (2 Bft)
01.05.2013 00:50 10,5 C 9,0 C 71 % 1023,3 hPa 0,0 l/m 0 min 0 min 0,0 UV-I 0 W/m 7,7 km/h (2 Bft)
01.05.2013 00:52 10,5 C 9,0 C 72 % 1023,3 hPa 0,0 l/m 0 min 0 min 0,0 UV-I 0 W/m 7,7 km/h (2 Bft)
01.05.2013 00:54 10,5 C 9,0 C 72 % 1023,3 hPa 0,0 l/m 0 min 0 min 0,0 UV-I 0 W/m 10,3 km/h (2 Bft)
01.05.2013 00:56 10,5 C 9,0 C 72 % 1023,3 hPa 0,0 l/m 0 min 0 min 0,0 UV-I 0 W/m 5,1 km/h (1 Bft)
01.05.2013 00:58 10,4 C 9,0 C 72 % 1023,4 hPa 0,0 l/m 0 min 0 min 0,0 UV-I 0 W/m 2,6 km/h (1 Bft)
01.05.2013 01:00 10,4 C 9,0 C 72 % 1023,4 hPa 0,0 l/m 0 min 0 min 0,0 UV-I 0 W/m 10,3 km/h (2 Bft)
01.05.2013 01:02 10,4 C 9,0 C 72 % 1023,4 hPa 0,0 l/m 0 min 0 min 0,0 UV-I 0 W/m 2,6 km/h (1 Bft)
01.05.2013 01:04 10,4 C 9,0 C 72 % 1023,4 hPa 0,0 l/m 0 min 0 min 0,0 UV-I 0 W/m 7,7 km/h (2 Bft)
01.05.2013 01:06 10,4 C 9,0 C 72 % 1023,4 hPa 0,0 l/m 0 min 0 min 0,0 UV-I 0 W/m 12,9 km/h (3 Bft)
01.05.2013 01:08 10,4 C 9,0 C 72 % 1023,4 hPa 0,0 l/m 0 min 0 min 0,0 UV-I 0 W/m 10,3 km/h (2 Bft)
01.05.2013 01:10 10,4 C 9,0 C 72 % 1023,5 hPa 0,0 l/m 0 min 0 min 0,0 UV-I 0 W/m 7,7 km/h (2 Bft)
01.05.2013 01:12 10,4 C 9,0 C 72 % 1023,4 hPa 0,0 l/m 0 min 0 min 0,0 UV-I 0 W/m 7,7 km/h (2 Bft)
01.05.2013 01:14 10,4 C 9,0 C 72 % 1023,4 hPa 0,0 l/m 0 min 0 min 0,0 UV-I 0 W/m 2,6 km/h (1 Bft)
01.05.2013 01:16 10,4 C 9,0 C 72 % 1023,4 hPa 0,0 l/m 0 min 0 min 0,0 UV-I 0 W/m 2,6 km/h (1 Bft)
01.05.2013 01:18 10,4 C 9,0 C 72 % 1023,4 hPa 0,0 l/m 0 min 0 min 0,0 UV-I 0 W/m 2,6 km/h (1 Bft)
01.05.2013 01:20 10,4 C 9,0 C 72 % 1023,3 hPa 0,0 l/m 0 min 0 min 0,0 UV-I 0 W/m 12,9 km/h (3 Bft)
01.05.2013 01:22 10,4 C 9,0 C 72 % 1023,3 hPa 0,0 l/m 0 min 0 min 0,0 UV-I 0 W/m 7,7 km/h (2 Bft)
01.05.2013 01:24 10,4 C 9,0 C 72 % 1023,3 hPa 0,0 l/m 0 min 0 min 0,0 UV-I 0 W/m 0,0 km/h (0 Bft)
01.05.2013 01:26 10,4 C 9,0 C 73 % 1023,3 hPa 0,0 l/m 0 min 0 min 0,0 UV-I 0 W/m 2,6 km/h (1 Bft)
01.05.2013 01:28 10,3 C 9,0 C 73 % 1023,3 hPa 0,0 l/m 0 min 0 min 0,0 UV-I 0 W/m 7,7 km/h (2 Bft)
01.05.2013 01:30 10,3 C 9,0 C 73 % 1023,3 hPa 0,0 l/m 0 min 0 min 0,0 UV-I 0 W/m 10,3 km/h (2 Bft)
01.05.2013 01:32 10,3 C 9,0 C 73 % 1023,4 hPa 0,0 l/m 0 min 0 min 0,0 UV-I 0 W/m 12,9 km/h (3 Bft)
01.05.2013 01:34 10,3 C 9,0 C 73 % 1023,3 hPa 0,0 l/m 0 min 0 min 0,0 UV-I 0 W/m 10,3 km/h (2 Bft)
01.05.2013 01:36 10,3 C 9,0 C 73 % 1023,4 hPa 0,0 l/m 0 min 0 min 0,0 UV-I 0 W/m 0,0 km/h (0 Bft)
01.05.2013 01:38 10,3 C 9,0 C 73 % 1023,3 hPa 0,0 l/m 0 min 0 min 0,0 UV-I 0 W/m 0,0 km/h (0 Bft)
01.05.2013 01:40 10,3 C 9,0 C 73 % 1023,3 hPa 0,0 l/m 0 min 0 min 0,0 UV-I 0 W/m 7,7 km/h (2 Bft)
01.05.2013 01:42 10,3 C 9,0 C 73 % 1023,4 hPa 0,0 l/m 0 min 0 min 0,0 UV-I 0 W/m 2,6 km/h (1 Bft)
01.05.2013 01:44 10,3 C 9,0 C 73 % 1023,4 hPa 0,0 l/m 0 min 0 min 0,0 UV-I 0 W/m 12,9 km/h (3 Bft)
01.05.2013 01:46 10,3 C 9,0 C 73 % 1023,4 hPa 0,0 l/m 0 min 0 min 0,0 UV-I 0 W/m 0,0 km/h (0 Bft)
01.05.2013 01:48 10,3 C 9,0 C 73 % 1023,5 hPa 0,0 l/m 0 min 0 min 0,0 UV-I 0 W/m 0,0 km/h (0 Bft)
01.05.2013 01:50 10,2 C 9,0 C 72 % 1023,5 hPa 0,0 l/m 0 min 0 min 0,0 UV-I 0 W/m 2,6 km/h (1 Bft)
01.05.2013 01:52 10,2 C 9,0 C 73 % 1023,5 hPa 0,0 l/m 0 min 0 min 0,0 UV-I 0 W/m 2,6 km/h (1 Bft)
01.05.2013 01:54 10,2 C 9,0 C 72 % 1023,6 hPa 0,0 l/m 0 min 0 min 0,0 UV-I 0 W/m 7,7 km/h (2 Bft)
01.05.2013 01:56 10,2 C 9,0 C 72 % 1023,6 hPa 0,0 l/m 0 min 0 min 0,0 UV-I 0 W/m 5,1 km/h (1 Bft)
01.05.2013 01:58 10,2 C 9,0 C 72 % 1023,6 hPa 0,0 l/m 0 min 0 min 0,0 UV-I 0 W/m 18,0 km/h (3 Bft)
01.05.2013 02:00 10,2 C 9,0 C 72 % 1023,6 hPa 0,0 l/m 0 min 0 min 0,0 UV-I 0 W/m 2,6 km/h (1 Bft)
01.05.2013 02:02 10,2 C 9,0 C 72 % 1023,7 hPa 0,0 l/m 0 min 0 min 0,0 UV-I 0 W/m 12,9 km/h (3 Bft)
01.05.2013 02:04 10,2 C 9,0 C 72 % 1023,6 hPa 0,0 l/m 0 min 0 min 0,0 UV-I 0 W/m 12,9 km/h (3 Bft)
01.05.2013 02:06 10,2 C 9,0 C 72 % 1023,7 hPa 0,0 l/m 0 min 0 min 0,0 UV-I 0 W/m 10,3 km/h (2 Bft)
01.05.2013 02:08 10,1 C 9,0 C 72 % 1023,7 hPa 0,0 l/m 0 min 0 min 0,0 UV-I 0 W/m 7,7 km/h (2 Bft)
01.05.2013 02:10 10,1 C 9,0 C 72 % 1023,7 hPa 0,0 l/m 0 min 0 min 0,0 UV-I 0 W/m 12,9 km/h (3 Bft)
01.05.2013 02:12 10,1 C 9,0 C 72 % 1023,7 hPa 0,0 l/m 0 min 0 min 0,0 UV-I 0 W/m 0,0 km/h (0 Bft)
01.05.2013 02:14 10,1 C 9,0 C 72 % 1023,6 hPa 0,0 l/m 0 min 0 min 0,0 UV-I 0 W/m 0,0 km/h (0 Bft)
01.05.2013 02:16 10,1 C 9,0 C 72 % 1023,5 hPa 0,0 l/m 0 min 0 min 0,0 UV-I 0 W/m 0,0 km/h (0 Bft)
01.05.2013 02:18 10,1 C 9,0 C 72 % 1023,5 hPa 0,0 l/m 0 min 0 min 0,0 UV-I 0 W/m 0,0 km/h (0 Bft)
01.05.2013 02:20 10,1 C 9,0 C 72 % 1023,5 hPa 0,0 l/m 0 min 0 min 0,0 UV-I 0 W/m 5,1 km/h (1 Bft)
01.05.2013 02:22 10,1 C 8,4 C 72 % 1023,4 hPa 0,0 l/m 0 min 0 min 0,0 UV-I 0 W/m 0,0 km/h (0 Bft)
01.05.2013 02:24 10,0 C 8,4 C 72 % 1023,4 hPa 0,0 l/m 0 min 0 min 0,0 UV-I 0 W/m 0,0 km/h (0 Bft)
01.05.2013 02:26 10,0 C 8,4 C 72 % 1023,4 hPa 0,0 l/m 0 min 0 min 0,0 UV-I 0 W/m 2,6 km/h (1 Bft)
01.05.2013 02:28 9,9 C 8,4 C 72 % 1023,4 hPa 0,0 l/m 0 min 0 min 0,0 UV-I 0 W/m 5,1 km/h (1 Bft)
01.05.2013 02:30 9,9 C 8,4 C 72 % 1023,3 hPa 0,0 l/m 0 min 0 min 0,0 UV-I 0 W/m 0,0 km/h (0 Bft)
01.05.2013 02:32 9,9 C 8,4 C 72 % 1023,3 hPa 0,0 l/m 0 min 0 min 0,0 UV-I 0 W/m 0,0 km/h (0 Bft)
01.05.2013 02:34 9,9 C 8,4 C 72 % 1023,4 hPa 0,0 l/m 0 min 0 min 0,0 UV-I 0 W/m 0,0 km/h (0 Bft)
01.05.2013 02:36 9,8 C 8,4 C 72 % 1023,3 hPa 0,0 l/m 0 min 0 min 0,0 UV-I 0 W/m 5,1 km/h (1 Bft)
01.05.2013 02:38 9,8 C 8,4 C 72 % 1023,3 hPa 0,0 l/m 0 min 0 min 0,0 UV-I 0 W/m 0,0 km/h (0 Bft)
01.05.2013 02:40 9,8 C 8,4 C 72 % 1023,3 hPa 0,0 l/m 0 min 0 min 0,0 UV-I 0 W/m 0,0 km/h (0 Bft)
01.05.2013 02:42 9,8 C 8,4 C 72 % 1023,3 hPa 0,0 l/m 0 min 0 min 0,0 UV-I 0 W/m 7,7 km/h (2 Bft)
01.05.2013 02:44 9,8 C 8,4 C 72 % 1023,3 hPa 0,0 l/m 0 min 0 min 0,0 UV-I 0 W/m 2,6 km/h (1 Bft)
01.05.2013 02:46 9,7 C 8,4 C 72 % 1023,3 hPa 0,0 l/m 0 min 0 min 0,0 UV-I 0 W/m 0,0 km/h (0 Bft)
01.05.2013 02:48 9,7 C 8,4 C 72 % 1023,3 hPa 0,0 l/m 0 min 0 min 0,0 UV-I 0 W/m 0,0 km/h (0 Bft)
01.05.2013 02:50 9,7 C 8,4 C 72 % 1023,3 hPa 0,0 l/m 0 min 0 min 0,0 UV-I 0 W/m 5,1 km/h (1 Bft)
01.05.2013 02:52 9,6 C 8,4 C 72 % 1023,3 hPa 0,0 l/m 0 min 0 min 0,0 UV-I 0 W/m 0,0 km/h (0 Bft)
01.05.2013 02:54 9,6 C 8,4 C 72 % 1023,4 hPa 0,0 l/m 0 min 0 min 0,0 UV-I 0 W/m 2,6 km/h (1 Bft)
01.05.2013 02:56 9,6 C 8,4 C 72 % 1023,3 hPa 0,0 l/m 0 min 0 min 0,0 UV-I 0 W/m 5,1 km/h (1 Bft)
01.05.2013 02:58 9,6 C 8,4 C 72 % 1023,3 hPa 0,0 l/m 0 min 0 min 0,0 UV-I 0 W/m 5,1 km/h (1 Bft)
01.05.2013 03:00 9,6 C 8,4 C 72 % 1023,3 hPa 0,0 l/m 0 min 0 min 0,0 UV-I 0 W/m 2,6 km/h (1 Bft)
01.05.2013 03:02 9,5 C 8,4 C 72 % 1023,4 hPa 0,0 l/m 0 min 0 min 0,0 UV-I 0 W/m 2,6 km/h (1 Bft)
01.05.2013 03:04 9,5 C 7,9 C 73 % 1023,4 hPa 0,0 l/m 0 min 0 min 0,0 UV-I 0 W/m 0,0 km/h (0 Bft)
01.05.2013 03:06 9,4 C 7,9 C 73 % 1023,4 hPa 0,0 l/m 0 min 0 min 0,0 UV-I 0 W/m 10,3 km/h (2 Bft)
01.05.2013 03:08 9,4 C 7,9 C 73 % 1023,3 hPa 0,0 l/m 0 min 0 min 0,0 UV-I 0 W/m 2,6 km/h (1 Bft)
01.05.2013 03:10 9,4 C 7,9 C 73 % 1023,4 hPa 0,0 l/m 0 min 0 min 0,0 UV-I 0 W/m 15,4 km/h (3 Bft)
01.05.2013 03:12 9,4 C 7,9 C 73 % 1023,3 hPa 0,0 l/m 0 min 0 min 0,0 UV-I 0 W/m 10,3 km/h (2 Bft)
01.05.2013 03:14 9,3 C 7,9 C 73 % 1023,3 hPa 0,0 l/m 0 min 0 min 0,0 UV-I 0 W/m 2,6 km/h (1 Bft)
01.05.2013 03:16 9,3 C 7,9 C 73 % 1023,3 hPa 0,0 l/m 0 min 0 min 0,0 UV-I 0 W/m 7,7 km/h (2 Bft)
01.05.2013 03:18 9,3 C 7,9 C 73 % 1023,3 hPa 0,0 l/m 0 min 0 min 0,0 UV-I 0 W/m 5,1 km/h (1 Bft)
01.05.2013 03:20 9,3 C 7,9 C 73 % 1023,3 hPa 0,0 l/m 0 min 0 min 0,0 UV-I 0 W/m 5,1 km/h (1 Bft)
01.05.2013 03:22 9,3 C 7,9 C 73 % 1023,3 hPa 0,0 l/m 0 min 0 min 0,0 UV-I 0 W/m 5,1 km/h (1 Bft)
01.05.2013 03:24 9,2 C 7,9 C 73 % 1023,4 hPa 0,0 l/m 0 min 0 min 0,0 UV-I 0 W/m 5,1 km/h (1 Bft)
01.05.2013 03:26 9,2 C 7,9 C 73 % 1023,4 hPa 0,0 l/m 0 min 0 min 0,0 UV-I 0 W/m 7,7 km/h (2 Bft)
01.05.2013 03:28 9,2 C 7,9 C 73 % 1023,3 hPa 0,0 l/m 0 min 0 min 0,0 UV-I 0 W/m 2,6 km/h (1 Bft)
01.05.2013 03:30 9,2 C 7,9 C 73 % 1023,3 hPa 0,0 l/m 0 min 0 min 0,0 UV-I 0 W/m 0,0 km/h (0 Bft)
01.05.2013 03:32 9,2 C 7,9 C 73 % 1023,3 hPa 0,0 l/m 0 min 0 min 0,0 UV-I 0 W/m 5,1 km/h (1 Bft)
01.05.2013 03:34 9,2 C 7,9 C 73 % 1023,3 hPa 0,0 l/m 0 min 0 min 0,0 UV-I 0 W/m 0,0 km/h (0 Bft)
01.05.2013 03:36 9,2 C 7,9 C 73 % 1023,2 hPa 0,0 l/m 0 min 0 min 0,0 UV-I 0 W/m 0,0 km/h (0 Bft)
01.05.2013 03:38 9,1 C 7,9 C 73 % 1023,3 hPa 0,0 l/m 0 min 0 min 0,0 UV-I 0 W/m 2,6 km/h (1 Bft)
01.05.2013 03:40 9,1 C 7,9 C 73 % 1023,3 hPa 0,0 l/m 0 min 0 min 0,0 UV-I 0 W/m 0,0 km/h (0 Bft)
01.05.2013 03:42 9,1 C 7,9 C 73 % 1023,3 hPa 0,0 l/m 0 min 0 min 0,0 UV-I 0 W/m 2,6 km/h (1 Bft)
01.05.2013 03:44 9,1 C 7,9 C 73 % 1023,3 hPa 0,0 l/m 0 min 0 min 0,0 UV-I 0 W/m 0,0 km/h (0 Bft)
01.05.2013 03:46 9,1 C 7,9 C 73 % 1023,3 hPa 0,0 l/m 0 min 0 min 0,0 UV-I 0 W/m 7,7 km/h (2 Bft)
01.05.2013 03:48 9,0 C 7,9 C 73 % 1023,3 hPa 0,0 l/m 0 min 0 min 0,0 UV-I 0 W/m 10,3 km/h (2 Bft)
01.05.2013 03:50 9,0 C 7,9 C 73 % 1023,3 hPa 0,0 l/m 0 min 0 min 0,0 UV-I 0 W/m 0,0 km/h (0 Bft)
01.05.2013 03:52 8,9 C 7,3 C 74 % 1023,3 hPa 0,0 l/m 0 min 0 min 0,0 UV-I 0 W/m 0,0 km/h (0 Bft)
01.05.2013 03:54 8,9 C 7,3 C 74 % 1023,3 hPa 0,0 l/m 0 min 0 min 0,0 UV-I 0 W/m 2,6 km/h (1 Bft)
01.05.2013 03:56 8,9 C 7,3 C 74 % 1023,3 hPa 0,0 l/m 0 min 0 min 0,0 UV-I 0 W/m 2,6 km/h (1 Bft)
01.05.2013 03:58 8,9 C 7,3 C 74 % 1023,3 hPa 0,0 l/m 0 min 0 min 0,0 UV-I 0 W/m 10,3 km/h (2 Bft)
01.05.2013 04:00 8,9 C 7,3 C 74 % 1023,3 hPa 0,0 l/m 0 min 0 min 0,0 UV-I 0 W/m 7,7 km/h (2 Bft)
01.05.2013 04:02 8,8 C 7,3 C 74 % 1023,3 hPa 0,0 l/m 0 min 0 min 0,0 UV-I 0 W/m 0,0 km/h (0 Bft)
01.05.2013 04:04 8,8 C 7,3 C 74 % 1023,3 hPa 0,0 l/m 0 min 0 min 0,0 UV-I 0 W/m 0,0 km/h (0 Bft)
01.05.2013 04:06 8,8 C 7,3 C 75 % 1023,3 hPa 0,0 l/m 0 min 0 min 0,0 UV-I 0 W/m 0,0 km/h (0 Bft)
01.05.2013 04:08 8,8 C 7,3 C 74 % 1023,3 hPa 0,0 l/m 0 min 0 min 0,0 UV-I 0 W/m 0,0 km/h (0 Bft)
01.05.2013 04:10 8,7 C 7,3 C 74 % 1023,4 hPa 0,0 l/m 0 min 0 min 0,0 UV-I 0 W/m 7,7 km/h (2 Bft)
01.05.2013 04:12 8,7 C 7,3 C 74 % 1023,3 hPa 0,0 l/m 0 min 0 min 0,0 UV-I 0 W/m 2,6 km/h (1 Bft)
01.05.2013 04:14 8,7 C 7,3 C 75 % 1023,3 hPa 0,0 l/m 0 min 0 min 0,0 UV-I 0 W/m 0,0 km/h (0 Bft)
01.05.2013 04:16 8,7 C 7,3 C 75 % 1023,3 hPa 0,0 l/m 0 min 0 min 0,0 UV-I 0 W/m 0,0 km/h (0 Bft)
01.05.2013 04:18 8,7 C 7,3 C 75 % 1023,3 hPa 0,0 l/m 0 min 0 min 0,0 UV-I 0 W/m 7,7 km/h (2 Bft)
01.05.2013 04:20 8,7 C 7,3 C 75 % 1023,3 hPa 0,0 l/m 0 min 0 min 0,0 UV-I 0 W/m 7,7 km/h (2 Bft)
01.05.2013 04:22 8,6 C 7,3 C 75 % 1023,4 hPa 0,0 l/m 0 min 0 min 0,0 UV-I 0 W/m 2,6 km/h (1 Bft)
01.05.2013 04:24 8,6 C 7,3 C 75 % 1023,4 hPa 0,0 l/m 0 min 0 min 0,0 UV-I 0 W/m 0,0 km/h (0 Bft)
01.05.2013 04:26 8,6 C 7,3 C 75 % 1023,4 hPa 0,0 l/m 0 min 0 min 0,0 UV-I 0 W/m 0,0 km/h (0 Bft)
01.05.2013 04:28 8,6 C 7,3 C 75 % 1023,4 hPa 0,0 l/m 0 min 0 min 0,0 UV-I 0 W/m 0,0 km/h (0 Bft)
01.05.2013 04:30 8,6 C 7,3 C 75 % 1023,4 hPa 0,0 l/m 0 min 0 min 0,0 UV-I 0 W/m 0,0 km/h (0 Bft)
01.05.2013 04:32 8,6 C 7,3 C 75 % 1023,4 hPa 0,0 l/m 0 min 0 min 0,0 UV-I 0 W/m 10,3 km/h (2 Bft)
01.05.2013 04:34 8,6 C 7,3 C 75 % 1023,4 hPa 0,0 l/m 0 min 0 min 0,0 UV-I 0 W/m 0,0 km/h (0 Bft)
01.05.2013 04:36 8,5 C 7,3 C 75 % 1023,4 hPa 0,0 l/m 0 min 0 min 0,0 UV-I 0 W/m 0,0 km/h (0 Bft)
01.05.2013 04:38 8,6 C 7,3 C 76 % 1023,4 hPa 0,0 l/m 0 min 0 min 0,0 UV-I 0 W/m 2,6 km/h (1 Bft)
01.05.2013 04:40 8,6 C 7,3 C 76 % 1023,4 hPa 0,0 l/m 0 min 0 min 0,0 UV-I 0 W/m 10,3 km/h (2 Bft)
01.05.2013 04:42 8,5 C 7,3 C 76 % 1023,5 hPa 0,0 l/m 0 min 0 min 0,0 UV-I 0 W/m 2,6 km/h (1 Bft)
01.05.2013 04:44 8,5 C 7,3 C 76 % 1023,5 hPa 0,0 l/m 0 min 0 min 0,0 UV-I 0 W/m 2,6 km/h (1 Bft)
01.05.2013 04:46 8,5 C 7,3 C 76 % 1023,4 hPa 0,0 l/m 0 min 0 min 0,0 UV-I 0 W/m 7,7 km/h (2 Bft)
01.05.2013 04:48 8,5 C 7,3 C 76 % 1023,5 hPa 0,0 l/m 0 min 0 min 0,0 UV-I 0 W/m 5,1 km/h (1 Bft)
01.05.2013 04:50 8,5 C 7,3 C 76 % 1023,5 hPa 0,0 l/m 0 min 0 min 0,0 UV-I 0 W/m 0,0 km/h (0 Bft)
01.05.2013 04:52 8,4 C 7,3 C 76 % 1023,5 hPa 0,0 l/m 0 min 0 min 0,0 UV-I 0 W/m 7,7 km/h (2 Bft)
01.05.2013 04:54 8,4 C 7,3 C 76 % 1023,4 hPa 0,0 l/m 0 min 0 min 0,0 UV-I 0 W/m 2,6 km/h (1 Bft)
01.05.2013 04:56 8,4 C 7,3 C 76 % 1023,3 hPa 0,0 l/m 0 min 0 min 0,0 UV-I 0 W/m 7,7 km/h (2 Bft)
01.05.2013 04:58 8,4 C 7,3 C 76 % 1023,3 hPa 0,0 l/m 0 min 0 min 0,0 UV-I 0 W/m 15,4 km/h (3 Bft)
01.05.2013 05:00 8,4 C 7,3 C 77 % 1023,3 hPa 0,0 l/m 0 min 0 min 0,0 UV-I 0 W/m 2,6 km/h (1 Bft)
01.05.2013 05:02 8,4 C 7,3 C 77 % 1023,4 hPa 0,0 l/m 0 min 0 min 0,0 UV-I 0 W/m 0,0 km/h (0 Bft)
01.05.2013 05:04 8,4 C 7,3 C 77 % 1023,4 hPa 0,0 l/m 0 min 0 min 0,0 UV-I 0 W/m 2,6 km/h (1 Bft)
01.05.2013 05:06 8,4 C 7,3 C 77 % 1023,4 hPa 0,0 l/m 0 min 0 min 0,0 UV-I 0 W/m 0,0 km/h (0 Bft)
01.05.2013 05:08 8,4 C 7,3 C 77 % 1023,4 hPa 0,0 l/m 0 min 0 min 0,0 UV-I 0 W/m 5,1 km/h (1 Bft)
01.05.2013 05:10 8,4 C 7,3 C 77 % 1023,4 hPa 0,0 l/m 0 min 0 min 0,0 UV-I 0 W/m 2,6 km/h (1 Bft)
01.05.2013 05:12 8,4 C 7,3 C 77 % 1023,3 hPa 0,0 l/m 0 min 0 min 0,0 UV-I 0 W/m 7,7 km/h (2 Bft)
01.05.2013 05:14 8,4 C 7,3 C 77 % 1023,4 hPa 0,0 l/m 0 min 0 min 0,0 UV-I 0 W/m 7,7 km/h (2 Bft)
01.05.2013 05:16 8,3 C 7,3 C 77 % 1023,3 hPa 0,0 l/m 0 min 0 min 0,0 UV-I 0 W/m 0,0 km/h (0 Bft)
01.05.2013 05:18 8,3 C 7,3 C 77 % 1023,4 hPa 0,0 l/m 0 min 0 min 0,0 UV-I 0 W/m 2,6 km/h (1 Bft)
01.05.2013 05:20 8,3 C 7,3 C 77 % 1023,3 hPa 0,0 l/m 0 min 0 min 0,0 UV-I 0 W/m 0,0 km/h (0 Bft)
01.05.2013 05:22 8,3 C 7,3 C 77 % 1023,3 hPa 0,0 l/m 0 min 0 min 0,0 UV-I 0 W/m 0,0 km/h (0 Bft)
01.05.2013 05:24 8,3 C 7,3 C 77 % 1023,4 hPa 0,0 l/m 0 min 0 min 0,0 UV-I 0 W/m 5,1 km/h (1 Bft)
01.05.2013 05:26 8,3 C 7,3 C 77 % 1023,3 hPa 0,0 l/m 0 min 0 min 0,0 UV-I 0 W/m 0,0 km/h (0 Bft)
01.05.2013 05:28 8,3 C 6,8 C 77 % 1023,3 hPa 0,0 l/m 0 min 0 min 0,0 UV-I 0 W/m 2,6 km/h (1 Bft)
01.05.2013 05:30 8,3 C 6,8 C 77 % 1023,3 hPa 0,0 l/m 0 min 0 min 0,0 UV-I 0 W/m 5,1 km/h (1 Bft)
01.05.2013 05:32 8,3 C 6,8 C 78 % 1023,4 hPa 0,0 l/m 0 min 0 min 0,0 UV-I 0 W/m 5,1 km/h (1 Bft)
01.05.2013 05:34 8,2 C 6,8 C 78 % 1023,4 hPa 0,0 l/m 0 min 0 min 0,0 UV-I 0 W/m 0,0 km/h (0 Bft)
01.05.2013 05:36 8,2 C 6,8 C 78 % 1023,4 hPa 0,0 l/m 0 min 0 min 0,0 UV-I 0 W/m 0,0 km/h (0 Bft)
01.05.2013 05:38 8,2 C 6,8 C 78 % 1023,4 hPa 0,0 l/m 0 min 0 min 0,0 UV-I 0 W/m 0,0 km/h (0 Bft)
01.05.2013 05:40 8,2 C 6,8 C 78 % 1023,4 hPa 0,0 l/m 0 min 0 min 0,0 UV-I 0 W/m 0,0 km/h (0 Bft)
01.05.2013 05:42 8,2 C 6,8 C 78 % 1023,4 hPa 0,0 l/m 0 min 0 min 0,0 UV-I 0 W/m 0,0 km/h (0 Bft)
01.05.2013 05:44 8,2 C 6,8 C 78 % 1023,4 hPa 0,0 l/m 0 min 0 min 0,0 UV-I 0 W/m 0,0 km/h (0 Bft)
01.05.2013 05:46 8,1 C 6,8 C 78 % 1023,5 hPa 0,0 l/m 0 min 0 min 0,0 UV-I 0 W/m 0,0 km/h (0 Bft)
01.05.2013 05:48 8,1 C 6,8 C 78 % 1023,5 hPa 0,0 l/m 0 min 0 min 0,0 UV-I 0 W/m 5,1 km/h (1 Bft)
01.05.2013 05:50 8,1 C 6,8 C 78 % 1023,5 hPa 0,0 l/m 0 min 0 min 0,0 UV-I 0 W/m 12,9 km/h (3 Bft)
01.05.2013 05:52 8,1 C 6,8 C 78 % 1023,4 hPa 0,0 l/m 0 min 0 min 0,0 UV-I 0 W/m 10,3 km/h (2 Bft)
01.05.2013 05:54 8,0 C 6,8 C 78 % 1023,4 hPa 0,0 l/m 0 min 0 min 0,0 UV-I 0 W/m 0,0 km/h (0 Bft)
01.05.2013 05:56 8,0 C 6,8 C 79 % 1023,4 hPa 0,0 l/m 0 min 0 min 0,0 UV-I 0 W/m 2,6 km/h (1 Bft)
01.05.2013 05:58 7,9 C 6,2 C 79 % 1023,4 hPa 0,0 l/m 0 min 0 min 0,0 UV-I 0 W/m 0,0 km/h (0 Bft)
01.05.2013 06:00 7,9 C 6,2 C 79 % 1023,3 hPa 0,0 l/m 0 min 0 min 0,0 UV-I 0 W/m 0,0 km/h (0 Bft)
01.05.2013 06:02 7,9 C 6,2 C 79 % 1023,4 hPa 0,0 l/m 0 min 0 min 0,0 UV-I 0 W/m 2,6 km/h (1 Bft)
01.05.2013 06:04 7,9 C 6,2 C 79 % 1023,4 hPa 0,0 l/m 0 min 0 min 0,0 UV-I 0 W/m 0,0 km/h (0 Bft)
01.05.2013 06:06 7,8 C 6,2 C 79 % 1023,4 hPa 0,0 l/m 0 min 0 min 0,0 UV-I 0 W/m 0,0 km/h (0 Bft)
01.05.2013 06:08 7,8 C 6,2 C 79 % 1023,4 hPa 0,0 l/m 0 min 0 min 0,0 UV-I 0 W/m 0,0 km/h (0 Bft)
01.05.2013 06:10 7,8 C 6,2 C 79 % 1023,4 hPa 0,0 l/m 0 min 0 min 0,0 UV-I 5 W/m 0,0 km/h (0 Bft)
01.05.2013 06:12 7,8 C 6,2 C 79 % 1023,4 hPa 0,0 l/m 0 min 0 min 0,0 UV-I 5 W/m 2,6 km/h (1 Bft)
01.05.2013 06:14 7,7 C 6,2 C 80 % 1023,4 hPa 0,0 l/m 0 min 0 min 0,0 UV-I 7 W/m 0,0 km/h (0 Bft)
01.05.2013 06:16 7,7 C 6,2 C 79 % 1023,4 hPa 0,0 l/m 0 min 0 min 0,0 UV-I 7 W/m 2,6 km/h (1 Bft)
01.05.2013 06:18 7,7 C 6,2 C 80 % 1023,4 hPa 0,0 l/m 0 min 0 min 0,0 UV-I 7 W/m 0,0 km/h (0 Bft)
01.05.2013 06:20 7,6 C 6,2 C 80 % 1023,4 hPa 0,0 l/m 0 min 0 min 0,0 UV-I 9 W/m 0,0 km/h (0 Bft)
01.05.2013 06:22 7,6 C 6,2 C 80 % 1023,3 hPa 0,0 l/m 0 min 0 min 0,0 UV-I 11 W/m 2,6 km/h (1 Bft)
01.05.2013 06:24 7,6 C 6,2 C 80 % 1023,3 hPa 0,0 l/m 0 min 0 min 0,0 UV-I 11 W/m 0,0 km/h (0 Bft)
01.05.2013 06:26 7,5 C 6,2 C 80 % 1023,3 hPa 0,0 l/m 0 min 0 min 0,0 UV-I 12 W/m 2,6 km/h (1 Bft)
01.05.2013 06:28 7,5 C 6,2 C 81 % 1023,3 hPa 0,0 l/m 0 min 0 min 0,0 UV-I 14 W/m 7,7 km/h (2 Bft)
01.05.2013 06:30 7,4 C 6,2 C 81 % 1023,3 hPa 0,0 l/m 0 min 0 min 0,0 UV-I 16 W/m 5,1 km/h (1 Bft)
01.05.2013 06:32 7,4 C 6,2 C 81 % 1023,3 hPa 0,0 l/m 0 min 0 min 0,0 UV-I 19 W/m 12,9 km/h (3 Bft)
01.05.2013 06:34 7,4 C 6,2 C 81 % 1023,3 hPa 0,0 l/m 0 min 0 min 0,0 UV-I 21 W/m 2,6 km/h (1 Bft)
01.05.2013 06:36 7,4 C 6,2 C 81 % 1023,3 hPa 0,0 l/m 0 min 0 min 0,0 UV-I 23 W/m 2,6 km/h (1 Bft)
01.05.2013 06:38 7,4 C 6,2 C 81 % 1023,3 hPa 0,0 l/m 0 min 0 min 0,0 UV-I 25 W/m 5,1 km/h (1 Bft)
01.05.2013 06:40 7,4 C 6,2 C 81 % 1023,4 hPa 0,0 l/m 0 min 0 min 0,0 UV-I 26 W/m 0,0 km/h (0 Bft)
01.05.2013 06:42 7,3 C 6,2 C 82 % 1023,3 hPa 0,0 l/m 0 min 0 min 0,0 UV-I 26 W/m 5,1 km/h (1 Bft)
01.05.2013 06:44 7,3 C 6,2 C 82 % 1023,3 hPa 0,0 l/m 0 min 0 min 0,0 UV-I 26 W/m 2,6 km/h (1 Bft)
01.05.2013 06:46 7,3 C 6,2 C 82 % 1023,4 hPa 0,0 l/m 0 min 0 min 0,0 UV-I 28 W/m 0,0 km/h (0 Bft)
01.05.2013 06:48 7,3 C 6,2 C 82 % 1023,3 hPa 0,0 l/m 0 min 0 min 0,0 UV-I 30 W/m 0,0 km/h (0 Bft)
01.05.2013 06:50 7,3 C 6,2 C 82 % 1023,3 hPa 0,0 l/m 0 min 0 min 0,0 UV-I 33 W/m 2,6 km/h (1 Bft)
01.05.2013 06:52 7,3 C 6,2 C 82 % 1023,3 hPa 0,0 l/m 0 min 0 min 0,0 UV-I 33 W/m 5,1 km/h (1 Bft)
01.05.2013 06:54 7,3 C 6,2 C 82 % 1023,3 hPa 0,0 l/m 0 min 0 min 0,0 UV-I 35 W/m 0,0 km/h (0 Bft)
01.05.2013 06:56 7,3 C 6,2 C 82 % 1023,3 hPa 0,0 l/m 0 min 0 min 0,0 UV-I 35 W/m 0,0 km/h (0 Bft)
01.05.2013 06:58 7,3 C 6,2 C 82 % 1023,3 hPa 0,0 l/m 0 min 0 min 0,0 UV-I 37 W/m 0,0 km/h (0 Bft)
01.05.2013 07:00 7,3 C 6,2 C 82 % 1023,3 hPa 0,0 l/m 0 min 0 min 0,0 UV-I 37 W/m 0,0 km/h (0 Bft)
01.05.2013 07:02 7,3 C 6,2 C 82 % 1023,3 hPa 0,0 l/m 0 min 0 min 0,0 UV-I 39 W/m 0,0 km/h (0 Bft)
01.05.2013 07:04 7,3 C 6,2 C 82 % 1023,2 hPa 0,0 l/m 0 min 0 min 0,0 UV-I 40 W/m 0,0 km/h (0 Bft)
01.05.2013 07:06 7,3 C 6,2 C 82 % 1023,2 hPa 0,0 l/m 0 min 0 min 0,0 UV-I 40 W/m 0,0 km/h (0 Bft)
01.05.2013 07:08 7,3 C 6,2 C 82 % 1023,2 hPa 0,0 l/m 0 min 0 min 0,0 UV-I 37 W/m 5,1 km/h (1 Bft)
01.05.2013 07:10 7,3 C 6,2 C 82 % 1023,2 hPa 0,0 l/m 0 min 0 min 0,0 UV-I 37 W/m 0,0 km/h (0 Bft)
01.05.2013 07:12 7,3 C 6,2 C 82 % 1023,2 hPa 0,0 l/m 0 min 0 min 0,0 UV-I 42 W/m 2,6 km/h (1 Bft)
01.05.2013 07:14 7,3 C 6,2 C 82 % 1023,2 hPa 0,0 l/m 0 min 0 min 0,0 UV-I 44 W/m 2,6 km/h (1 Bft)
01.05.2013 07:16 7,3 C 6,2 C 82 % 1023,2 hPa 0,0 l/m 0 min 0 min 0,0 UV-I 46 W/m 0,0 km/h (0 Bft)
01.05.2013 07:18 7,3 C 6,2 C 82 % 1023,2 hPa 0,0 l/m 0 min 0 min 0,0 UV-I 47 W/m 7,7 km/h (2 Bft)
01.05.2013 07:20 7,3 C 6,2 C 82 % 1023,2 hPa 0,0 l/m 0 min 0 min 0,0 UV-I 51 W/m 7,7 km/h (2 Bft)
01.05.2013 07:22 7,3 C 6,2 C 83 % 1023,2 hPa 0,0 l/m 0 min 0 min 0,0 UV-I 51 W/m 5,1 km/h (1 Bft)
01.05.2013 07:24 7,3 C 6,8 C 83 % 1023,2 hPa 0,0 l/m 0 min 0 min 0,0 UV-I 58 W/m 7,7 km/h (2 Bft)
01.05.2013 07:26 7,3 C 6,8 C 83 % 1023,2 hPa 0,0 l/m 0 min 0 min 0,0 UV-I 62 W/m 2,6 km/h (1 Bft)
01.05.2013 07:28 7,4 C 6,8 C 83 % 1023,2 hPa 0,0 l/m 0 min 0 min 0,0 UV-I 63 W/m 2,6 km/h (1 Bft)
01.05.2013 07:30 7,4 C 6,8 C 83 % 1023,2 hPa 0,0 l/m 0 min 0 min 0,0 UV-I 67 W/m 12,9 km/h (3 Bft)
01.05.2013 07:32 7,4 C 6,8 C 83 % 1023,2 hPa 0,0 l/m 0 min 0 min 0,0 UV-I 69 W/m 2,6 km/h (1 Bft)
01.05.2013 07:34 7,4 C 6,8 C 83 % 1023,2 hPa 0,0 l/m 0 min 0 min 0,0 UV-I 70 W/m 5,1 km/h (1 Bft)
01.05.2013 07:36 7,5 C 6,8 C 83 % 1023,2 hPa 0,0 l/m 0 min 0 min 0,0 UV-I 70 W/m 0,0 km/h (0 Bft)
01.05.2013 07:38 7,5 C 6,8 C 82 % 1023,2 hPa 0,0 l/m 0 min 0 min 0,0 UV-I 70 W/m 5,1 km/h (1 Bft)
01.05.2013 07:40 7,6 C 6,8 C 82 % 1023,2 hPa 0,0 l/m 0 min 0 min 0,0 UV-I 72 W/m 7,7 km/h (2 Bft)
01.05.2013 07:42 7,6 C 6,8 C 82 % 1023,2 hPa 0,0 l/m 0 min 0 min 0,0 UV-I 72 W/m 12,9 km/h (3 Bft)
01.05.2013 07:44 7,6 C 6,8 C 82 % 1023,2 hPa 0,0 l/m 0 min 0 min 0,0 UV-I 74 W/m 5,1 km/h (1 Bft)
01.05.2013 07:46 7,7 C 7,3 C 82 % 1023,2 hPa 0,0 l/m 0 min 0 min 0,0 UV-I 74 W/m 10,3 km/h (2 Bft)
01.05.2013 07:48 7,7 C 7,3 C 82 % 1023,2 hPa 0,0 l/m 0 min 0 min 0,0 UV-I 79 W/m 5,1 km/h (1 Bft)
01.05.2013 07:50 7,7 C 7,3 C 82 % 1023,2 hPa 0,0 l/m 0 min 0 min 0,0 UV-I 81 W/m 7,7 km/h (2 Bft)
01.05.2013 07:52 7,7 C 7,3 C 82 % 1023,2 hPa 0,0 l/m 0 min 0 min 0,0 UV-I 81 W/m 7,7 km/h (2 Bft)
01.05.2013 07:54 7,8 C 7,3 C 82 % 1023,2 hPa 0,0 l/m 0 min 0 min 0,0 UV-I 81 W/m 5,1 km/h (1 Bft)
01.05.2013 07:56 7,8 C 7,3 C 82 % 1023,2 hPa 0,0 l/m 0 min 0 min 0,0 UV-I 79 W/m 10,3 km/h (2 Bft)
01.05.2013 07:58 7,8 C 7,3 C 82 % 1023,2 hPa 0,0 l/m 0 min 0 min 0,0 UV-I 74 W/m 10,3 km/h (2 Bft)
01.05.2013 08:00 7,8 C 7,3 C 82 % 1023,2 hPa 0,0 l/m 0 min 0 min 0,0 UV-I 67 W/m 5,1 km/h (1 Bft)
01.05.2013 08:02 7,9 C 7,3 C 82 % 1023,2 hPa 0,0 l/m 0 min 0 min 0,0 UV-I 69 W/m 5,1 km/h (1 Bft)
01.05.2013 08:04 7,9 C 7,3 C 81 % 1023,1 hPa 0,0 l/m 0 min 0 min 0,0 UV-I 69 W/m 0,0 km/h (0 Bft)
01.05.2013 08:06 8,0 C 7,3 C 81 % 1023,2 hPa 0,0 l/m 0 min 0 min 0,0 UV-I 70 W/m 2,6 km/h (1 Bft)
01.05.2013 08:08 8,0 C 7,3 C 81 % 1023,1 hPa 0,0 l/m 0 min 0 min 0,0 UV-I 70 W/m 2,6 km/h (1 Bft)
01.05.2013 08:10 8,1 C 7,3 C 81 % 1023,1 hPa 0,0 l/m 0 min 0 min 0,0 UV-I 70 W/m 10,3 km/h (2 Bft)
01.05.2013 08:12 8,1 C 7,3 C 81 % 1023,1 hPa 0,0 l/m 0 min 0 min 0,0 UV-I 77 W/m 2,6 km/h (1 Bft)
01.05.2013 08:14 8,1 C 7,3 C 81 % 1023,1 hPa 0,0 l/m 0 min 0 min 0,0 UV-I 77 W/m 0,0 km/h (0 Bft)
01.05.2013 08:16 8,2 C 7,9 C 81 % 1023,1 hPa 0,0 l/m 0 min 0 min 0,0 UV-I 77 W/m 10,3 km/h (2 Bft)
01.05.2013 08:18 8,2 C 7,9 C 81 % 1023,1 hPa 0,0 l/m 0 min 0 min 0,0 UV-I 79 W/m 10,3 km/h (2 Bft)
01.05.2013 08:20 8,3 C 7,9 C 81 % 1023,1 hPa 0,0 l/m 0 min 0 min 0,0 UV-I 79 W/m 10,3 km/h (2 Bft)
01.05.2013 08:22 8,3 C 7,9 C 80 % 1023,1 hPa 0,0 l/m 0 min 0 min 0,0 UV-I 79 W/m 7,7 km/h (2 Bft)
01.05.2013 08:24 8,4 C 7,9 C 80 % 1023,0 hPa 0,0 l/m 0 min 0 min 0,0 UV-I 77 W/m 7,7 km/h (2 Bft)
01.05.2013 08:26 8,4 C 7,9 C 80 % 1023,0 hPa 0,0 l/m 0 min 0 min 0,0 UV-I 77 W/m 5,1 km/h (1 Bft)
01.05.2013 08:28 8,5 C 7,9 C 80 % 1023,0 hPa 0,0 l/m 0 min 0 min 0,0 UV-I 77 W/m 7,7 km/h (2 Bft)
01.05.2013 08:30 8,6 C 8,4 C 79 % 1022,9 hPa 0,0 l/m 0 min 0 min 0,0 UV-I 70 W/m 10,3 km/h (2 Bft)
01.05.2013 08:32 8,6 C 7,9 C 79 % 1023,0 hPa 0,0 l/m 0 min 0 min 0,0 UV-I 69 W/m 10,3 km/h (2 Bft)
01.05.2013 08:34 8,7 C 8,4 C 79 % 1022,9 hPa 0,0 l/m 0 min 0 min 0,0 UV-I 72 W/m 5,1 km/h (1 Bft)
01.05.2013 08:36 8,8 C 8,4 C 79 % 1022,9 hPa 0,0 l/m 0 min 0 min 0,0 UV-I 77 W/m 2,6 km/h (1 Bft)
01.05.2013 08:38 8,8 C 8,4 C 79 % 1022,9 hPa 0,0 l/m 0 min 0 min 0,0 UV-I 79 W/m 5,1 km/h (1 Bft)
01.05.2013 08:40 8,9 C 8,4 C 79 % 1022,9 hPa 0,0 l/m 0 min 0 min 0,0 UV-I 79 W/m 10,3 km/h (2 Bft)
01.05.2013 08:42 8,9 C 8,4 C 78 % 1022,9 hPa 0,0 l/m 0 min 0 min 0,0 UV-I 81 W/m 12,9 km/h (3 Bft)
01.05.2013 08:44 9,1 C 8,4 C 78 % 1022,9 hPa 0,0 l/m 0 min 0 min 0,0 UV-I 83 W/m 10,3 km/h (2 Bft)
01.05.2013 08:46 9,1 C 8,4 C 78 % 1022,9 hPa 0,0 l/m 0 min 0 min 0,0 UV-I 84 W/m 5,1 km/h (1 Bft)
01.05.2013 08:48 9,2 C 9,0 C 78 % 1022,9 hPa 0,0 l/m 0 min 0 min 0,0 UV-I 88 W/m 12,9 km/h (3 Bft)
01.05.2013 08:50 9,3 C 9,0 C 78 % 1022,9 hPa 0,0 l/m 0 min 0 min 0,0 UV-I 91 W/m 10,3 km/h (2 Bft)
01.05.2013 08:52 9,5 C 9,0 C 77 % 1022,9 hPa 0,0 l/m 0 min 0 min 0,0 UV-I 88 W/m 7,7 km/h (2 Bft)
01.05.2013 08:54 9,6 C 9,0 C 77 % 1022,9 hPa 0,0 l/m 0 min 0 min 0,0 UV-I 86 W/m 7,7 km/h (2 Bft)
01.05.2013 08:56 9,7 C 9,0 C 76 % 1022,9 hPa 0,0 l/m 0 min 0 min 0,0 UV-I 86 W/m 15,4 km/h (3 Bft)
01.05.2013 08:58 9,8 C 9,0 C 76 % 1022,9 hPa 0,0 l/m 0 min 0 min 0,0 UV-I 83 W/m 12,9 km/h (3 Bft)
01.05.2013 09:00 9,8 C 9,0 C 76 % 1023,0 hPa 0,0 l/m 0 min 0 min 0,0 UV-I 86 W/m 7,7 km/h (2 Bft)
01.05.2013 09:02 9,9 C 9,6 C 75 % 1023,0 hPa 0,0 l/m 0 min 0 min 0,0 UV-I 90 W/m 7,7 km/h (2 Bft)
01.05.2013 09:04 10,0 C 9,6 C 75 % 1023,0 hPa 0,0 l/m 0 min 0 min 0,0 UV-I 90 W/m 10,3 km/h (2 Bft)
01.05.2013 09:06 10,1 C 9,6 C 75 % 1023,0 hPa 0,0 l/m 0 min 0 min 0,0 UV-I 86 W/m 2,6 km/h (1 Bft)
01.05.2013 09:08 10,1 C 9,6 C 75 % 1023,0 hPa 0,0 l/m 0 min 0 min 0,0 UV-I 79 W/m 2,6 km/h (1 Bft)
01.05.2013 09:10 10,2 C 9,6 C 75 % 1022,9 hPa 0,0 l/m 0 min 0 min 0,0 UV-I 81 W/m 0,0 km/h (0 Bft)
01.05.2013 09:12 10,3 C 9,6 C 74 % 1022,9 hPa 0,0 l/m 0 min 0 min 0,0 UV-I 79 W/m 12,9 km/h (3 Bft)
01.05.2013 09:14 10,3 C 9,6 C 74 % 1022,9 hPa 0,0 l/m 0 min 0 min 0,0 UV-I 72 W/m 5,1 km/h (1 Bft)
01.05.2013 09:16 10,3 C 9,6 C 74 % 1022,9 hPa 0,0 l/m 0 min 0 min 0,0 UV-I 83 W/m 7,7 km/h (2 Bft)
01.05.2013 09:18 10,4 C 10,1 C 74 % 1022,9 hPa 0,0 l/m 0 min 0 min 0,0 UV-I 86 W/m 7,7 km/h (2 Bft)
01.05.2013 09:20 10,5 C 10,1 C 73 % 1022,9 hPa 0,0 l/m 0 min 0 min 0,0 UV-I 84 W/m 18,0 km/h (3 Bft)
01.05.2013 09:22 10,6 C 10,1 C 73 % 1022,8 hPa 0,0 l/m 0 min 0 min 0,0 UV-I 84 W/m 10,3 km/h (2 Bft)
01.05.2013 09:24 10,6 C 10,7 C 73 % 1022,9 hPa 0,0 l/m 0 min 0 min 0,5 UV-I 84 W/m 7,7 km/h (2 Bft)
01.05.2013 09:26 10,7 C 11,2 C 72 % 1022,9 hPa 0,0 l/m 0 min 0 min 0,5 UV-I 86 W/m 2,6 km/h (1 Bft)
01.05.2013 09:28 10,8 C 11,8 C 72 % 1022,9 hPa 0,0 l/m 0 min 0 min 0,5 UV-I 90 W/m 10,3 km/h (2 Bft)
01.05.2013 09:30 10,8 C 12,3 C 72 % 1022,9 hPa 0,0 l/m 0 min 0 min 0,6 UV-I 97 W/m 2,6 km/h (1 Bft)
01.05.2013 09:32 10,9 C 14,0 C 72 % 1022,9 hPa 0,0 l/m 0 min 0 min 0,6 UV-I 102 W/m 15,4 km/h (3 Bft)
01.05.2013 09:34 11,0 C 14,6 C 72 % 1022,9 hPa 0,0 l/m 0 min 0 min 0,7 UV-I 127 W/m 10,3 km/h (2 Bft)
01.05.2013 09:36 11,1 C 15,7 C 72 % 1022,9 hPa 0,0 l/m 0 min 0 min 0,8 UV-I 146 W/m 5,1 km/h (1 Bft)
01.05.2013 09:38 11,2 C 15,1 C 71 % 1022,9 hPa 0,0 l/m 0 min 0 min 0,8 UV-I 174 W/m 18,0 km/h (3 Bft)
01.05.2013 09:40 11,3 C 15,1 C 71 % 1022,8 hPa 0,0 l/m 0 min 0 min 0,7 UV-I 174 W/m 12,9 km/h (3 Bft)
01.05.2013 09:42 11,3 C 15,1 C 71 % 1022,9 hPa 0,0 l/m 0 min 0 min 0,7 UV-I 171 W/m 7,7 km/h (2 Bft)
01.05.2013 09:44 11,4 C 15,1 C 71 % 1022,9 hPa 0,0 l/m 0 min 0 min 0,8 UV-I 216 W/m 18,0 km/h (3 Bft)
01.05.2013 09:46 11,4 C 16,2 C 70 % 1022,9 hPa 0,0 l/m 0 min 0 min 0,9 UV-I 258 W/m 10,3 km/h (2 Bft)
01.05.2013 09:48 11,4 C 16,2 C 70 % 1022,9 hPa 0,0 l/m 0 min 0 min 0,8 UV-I 244 W/m 20,6 km/h (4 Bft)
01.05.2013 09:50 11,5 C 15,1 C 69 % 1022,9 hPa 0,0 l/m 0 min 0 min 0,6 UV-I 197 W/m 18,0 km/h (3 Bft)
01.05.2013 09:52 11,5 C 15,1 C 69 % 1022,9 hPa 0,0 l/m 2 min 0 min 1,0 UV-I 341 W/m 15,4 km/h (3 Bft)
01.05.2013 09:54 11,5 C 15,7 C 69 % 1022,9 hPa 0,0 l/m 2 min 0 min 1,0 UV-I 334 W/m 12,9 km/h (3 Bft)
01.05.2013 09:56 11,6 C 16,8 C 70 % 1022,9 hPa 0,0 l/m 2 min 0 min 1,1 UV-I 374 W/m 2,6 km/h (1 Bft)
01.05.2013 09:58 11,7 C 17,9 C 70 % 1022,9 hPa 0,0 l/m 2 min 0 min 1,1 UV-I 378 W/m 10,3 km/h (2 Bft)
01.05.2013 10:00 11,8 C 17,9 C 69 % 1022,8 hPa 0,0 l/m 2 min 0 min 1,2 UV-I 452 W/m 5,1 km/h (1 Bft)
01.05.2013 10:02 11,9 C 19,0 C 69 % 1022,9 hPa 0,0 l/m 2 min 0 min 1,2 UV-I 459 W/m 5,1 km/h (1 Bft)
01.05.2013 10:04 12,1 C 19,6 C 69 % 1022,8 hPa 0,0 l/m 2 min 0 min 1,3 UV-I 476 W/m 7,7 km/h (2 Bft)
01.05.2013 10:06 12,2 C 19,6 C 69 % 1022,8 hPa 0,0 l/m 2 min 0 min 1,3 UV-I 482 W/m 7,7 km/h (2 Bft)
01.05.2013 10:08 12,3 C 20,1 C 68 % 1022,8 hPa 0,0 l/m 2 min 0 min 1,3 UV-I 496 W/m 5,1 km/h (1 Bft)
01.05.2013 10:10 12,5 C 19,6 C 67 % 1022,8 hPa 0,0 l/m 2 min 0 min 1,4 UV-I 499 W/m 12,9 km/h (3 Bft)
01.05.2013 10:12 12,6 C 19,0 C 66 % 1022,7 hPa 0,0 l/m 2 min 0 min 1,4 UV-I 503 W/m 10,3 km/h (2 Bft)
01.05.2013 10:14 12,7 C 19,6 C 66 % 1022,7 hPa 0,0 l/m 2 min 0 min 1,5 UV-I 513 W/m 15,4 km/h (3 Bft)
01.05.2013 10:16 12,8 C 19,0 C 66 % 1022,7 hPa 0,0 l/m 2 min 0 min 1,5 UV-I 519 W/m 7,7 km/h (2 Bft)
01.05.2013 10:18 12,9 C 19,6 C 66 % 1022,7 hPa 0,0 l/m 2 min 0 min 1,6 UV-I 524 W/m 7,7 km/h (2 Bft)
01.05.2013 10:20 13,1 C 19,6 C 65 % 1022,6 hPa 0,0 l/m 2 min 0 min 1,6 UV-I 527 W/m 7,7 km/h (2 Bft)
01.05.2013 10:22 13,2 C 20,1 C 65 % 1022,6 hPa 0,0 l/m 2 min 0 min 1,6 UV-I 531 W/m 10,3 km/h (2 Bft)
01.05.2013 10:24 13,2 C 19,6 C 64 % 1022,6 hPa 0,0 l/m 2 min 0 min 1,7 UV-I 534 W/m 10,3 km/h (2 Bft)
01.05.2013 10:26 13,3 C 20,7 C 65 % 1022,7 hPa 0,0 l/m 2 min 0 min 1,7 UV-I 541 W/m 7,7 km/h (2 Bft)
01.05.2013 10:28 13,3 C 20,7 C 64 % 1022,6 hPa 0,0 l/m 2 min 0 min 1,8 UV-I 547 W/m 18,0 km/h (3 Bft)
01.05.2013 10:30 13,4 C 20,7 C 65 % 1022,6 hPa 0,0 l/m 2 min 0 min 1,8 UV-I 548 W/m 7,7 km/h (2 Bft)
01.05.2013 10:32 13,4 C 20,1 C 64 % 1022,6 hPa 0,0 l/m 2 min 0 min 1,8 UV-I 555 W/m 25,7 km/h (4 Bft)
01.05.2013 10:34 13,6 C 20,1 C 64 % 1022,6 hPa 0,0 l/m 2 min 0 min 1,9 UV-I 555 W/m 12,9 km/h (3 Bft)
01.05.2013 10:36 13,7 C 21,2 C 65 % 1022,6 hPa 0,0 l/m 2 min 0 min 1,9 UV-I 561 W/m 5,1 km/h (1 Bft)
01.05.2013 10:38 13,8 C 21,2 C 64 % 1022,6 hPa 0,0 l/m 2 min 0 min 2,0 UV-I 568 W/m 10,3 km/h (2 Bft)
01.05.2013 10:40 13,8 C 20,1 C 63 % 1022,5 hPa 0,0 l/m 2 min 0 min 2,0 UV-I 563 W/m 15,4 km/h (3 Bft)
01.05.2013 10:42 13,9 C 20,1 C 63 % 1022,6 hPa 0,0 l/m 2 min 0 min 2,1 UV-I 534 W/m 10,3 km/h (2 Bft)
01.05.2013 10:44 13,9 C 21,2 C 63 % 1022,5 hPa 0,0 l/m 2 min 0 min 2,1 UV-I 441 W/m 10,3 km/h (2 Bft)
01.05.2013 10:46 14,0 C 21,2 C 63 % 1022,5 hPa 0,0 l/m 0 min 0 min 2,1 UV-I 330 W/m 7,7 km/h (2 Bft)
01.05.2013 10:48 14,1 C 21,8 C 65 % 1022,5 hPa 0,0 l/m 0 min 0 min 2,2 UV-I 232 W/m 15,4 km/h (3 Bft)
01.05.2013 10:50 14,2 C 21,2 C 63 % 1022,5 hPa 0,0 l/m 0 min 0 min 2,2 UV-I 127 W/m 18,0 km/h (3 Bft)
01.05.2013 10:52 14,3 C 21,2 C 62 % 1022,5 hPa 0,0 l/m 0 min 0 min 2,3 UV-I 93 W/m 2,6 km/h (1 Bft)
01.05.2013 10:54 14,4 C 21,8 C 63 % 1022,4 hPa 0,0 l/m 0 min 0 min 2,3 UV-I 83 W/m 2,6 km/h (1 Bft)
01.05.2013 10:56 14,5 C 22,3 C 62 % 1022,4 hPa 0,0 l/m 0 min 0 min 2,4 UV-I 81 W/m 12,9 km/h (3 Bft)
01.05.2013 10:58 14,6 C 22,3 C 62 % 1022,5 hPa 0,0 l/m 0 min 0 min 2,4 UV-I 81 W/m 12,9 km/h (3 Bft)
01.05.2013 11:00 14,7 C 22,3 C 62 % 1022,5 hPa 0,0 l/m 0 min 0 min 2,4 UV-I 81 W/m 12,9 km/h (3 Bft)
01.05.2013 11:02 14,7 C 22,3 C 62 % 1022,5 hPa 0,0 l/m 0 min 0 min 2,5 UV-I 81 W/m 12,9 km/h (3 Bft)
01.05.2013 11:04 14,8 C 21,8 C 61 % 1022,4 hPa 0,0 l/m 0 min 0 min 2,5 UV-I 81 W/m 15,4 km/h (3 Bft)
01.05.2013 11:06 14,9 C 21,2 C 62 % 1022,4 hPa 0,0 l/m 0 min 0 min 2,5 UV-I 83 W/m 12,9 km/h (3 Bft)
01.05.2013 11:08 15,0 C 21,2 C 61 % 1022,4 hPa 0,0 l/m 0 min 0 min 2,6 UV-I 83 W/m 10,3 km/h (2 Bft)
01.05.2013 11:10 15,0 C 21,8 C 62 % 1022,4 hPa 0,0 l/m 0 min 0 min 2,6 UV-I 83 W/m 2,6 km/h (1 Bft)
01.05.2013 11:12 15,0 C 22,3 C 61 % 1022,4 hPa 0,0 l/m 0 min 0 min 2,7 UV-I 83 W/m 12,9 km/h (3 Bft)
01.05.2013 11:14 15,0 C 22,3 C 61 % 1022,2 hPa 0,0 l/m 0 min 0 min 2,7 UV-I 84 W/m 10,3 km/h (2 Bft)
01.05.2013 11:16 15,1 C 21,2 C 61 % 1022,2 hPa 0,0 l/m 0 min 0 min 2,8 UV-I 86 W/m 7,7 km/h (2 Bft)
01.05.2013 11:18 15,2 C 21,2 C 61 % 1022,2 hPa 0,0 l/m 0 min 0 min 2,8 UV-I 100 W/m 10,3 km/h (2 Bft)
01.05.2013 11:20 15,3 C 19,6 C 60 % 1022,2 hPa 0,0 l/m 0 min 0 min 2,9 UV-I 158 W/m 5,1 km/h (1 Bft)
01.05.2013 11:22 15,3 C 17,9 C 61 % 1022,2 hPa 0,0 l/m 0 min 0 min 2,9 UV-I 243 W/m 15,4 km/h (3 Bft)
01.05.2013 11:24 15,3 C 17,3 C 60 % 1022,2 hPa 0,0 l/m 0 min 0 min 2,9 UV-I 346 W/m 20,6 km/h (4 Bft)
01.05.2013 11:26 15,3 C 16,8 C 60 % 1022,1 hPa 0,0 l/m 2 min 0 min 2,9 UV-I 441 W/m 12,9 km/h (3 Bft)
01.05.2013 11:28 15,4 C 16,2 C 60 % 1022,1 hPa 0,0 l/m 2 min 0 min 3,0 UV-I 541 W/m 18,0 km/h (3 Bft)
01.05.2013 11:30 15,4 C 16,2 C 60 % 1022,1 hPa 0,0 l/m 2 min 0 min 3,0 UV-I 626 W/m 12,9 km/h (3 Bft)
01.05.2013 11:32 15,4 C 16,2 C 60 % 1022,0 hPa 0,0 l/m 2 min 0 min 3,1 UV-I 659 W/m 10,3 km/h (2 Bft)
01.05.2013 11:34 15,4 C 16,2 C 61 % 1022,0 hPa 0,0 l/m 2 min 0 min 3,0 UV-I 664 W/m 5,1 km/h (1 Bft)
01.05.2013 11:36 15,4 C 16,8 C 60 % 1022,0 hPa 0,0 l/m 2 min 0 min 3,1 UV-I 679 W/m 15,4 km/h (3 Bft)
01.05.2013 11:38 15,4 C 16,2 C 60 % 1022,0 hPa 0,0 l/m 2 min 0 min 3,2 UV-I 680 W/m 10,3 km/h (2 Bft)
01.05.2013 11:40 15,5 C 16,8 C 60 % 1021,9 hPa 0,0 l/m 2 min 0 min 3,2 UV-I 680 W/m 15,4 km/h (3 Bft)
01.05.2013 11:42 15,6 C 17,3 C 61 % 1021,9 hPa 0,0 l/m 2 min 0 min 3,2 UV-I 700 W/m 5,1 km/h (1 Bft)
01.05.2013 11:44 15,7 C 17,9 C 61 % 1021,9 hPa 0,0 l/m 2 min 0 min 3,3 UV-I 698 W/m 7,7 km/h (2 Bft)
01.05.2013 11:46 15,8 C 18,4 C 61 % 1021,9 hPa 0,0 l/m 2 min 0 min 3,3 UV-I 703 W/m 12,9 km/h (3 Bft)
01.05.2013 11:48 15,9 C 20,1 C 60 % 1021,9 hPa 0,0 l/m 2 min 0 min 3,4 UV-I 717 W/m 7,7 km/h (2 Bft)
01.05.2013 11:50 16,0 C 21,2 C 59 % 1021,9 hPa 0,0 l/m 2 min 0 min 3,3 UV-I 698 W/m 12,9 km/h (3 Bft)
01.05.2013 11:52 16,1 C 22,3 C 59 % 1021,9 hPa 0,0 l/m 2 min 0 min 3,5 UV-I 698 W/m 5,1 km/h (1 Bft)
01.05.2013 11:54 16,2 C 22,3 C 60 % 1021,9 hPa 0,0 l/m 2 min 0 min 2,2 UV-I 700 W/m 7,7 km/h (2 Bft)
01.05.2013 11:56 16,2 C 22,3 C 60 % 1021,9 hPa 0,0 l/m 2 min 0 min 2,3 UV-I 777 W/m 2,6 km/h (1 Bft)
01.05.2013 11:58 16,2 C 23,4 C 60 % 1021,8 hPa 0,0 l/m 2 min 0 min 2,3 UV-I 777 W/m 0,0 km/h (0 Bft)
01.05.2013 12:00 16,2 C 22,9 C 60 % 1021,8 hPa 0,0 l/m 2 min 0 min 2,3 UV-I 777 W/m 0,0 km/h (0 Bft)
01.05.2013 12:02 16,2 C 22,9 C 60 % 1021,8 hPa 0,0 l/m 2 min 0 min 2,3 UV-I 777 W/m 0,0 km/h (0 Bft)
01.05.2013 12:04 16,2 C 22,9 C 60 % 1021,8 hPa 0,0 l/m 2 min 0 min 2,3 UV-I 777 W/m 0,0 km/h (0 Bft)
01.05.2013 12:06 16,2 C 22,3 C 60 % 1021,8 hPa 0,0 l/m 2 min 0 min 2,3 UV-I 777 W/m 0,0 km/h (0 Bft)
01.05.2013 12:08 16,2 C 22,9 C 60 % 1021,8 hPa 0,0 l/m 2 min 0 min 2,3 UV-I 777 W/m 0,0 km/h (0 Bft)
01.05.2013 12:10 16,2 C 23,4 C 60 % 1021,8 hPa 0,0 l/m 2 min 0 min 2,3 UV-I 777 W/m 0,0 km/h (0 Bft)
01.05.2013 12:12 16,2 C 24,0 C 60 % 1021,8 hPa 0,0 l/m 2 min 0 min 2,3 UV-I 777 W/m 0,0 km/h (0 Bft)
01.05.2013 12:14 16,2 C 24,0 C 60 % 1021,7 hPa 0,0 l/m 2 min 0 min 2,3 UV-I 777 W/m 0,0 km/h (0 Bft)
01.05.2013 12:16 16,2 C 24,0 C 60 % 1021,8 hPa 0,0 l/m 2 min 0 min 2,3 UV-I 777 W/m 0,0 km/h (0 Bft)
01.05.2013 12:18 16,2 C 23,4 C 60 % 1021,7 hPa 0,0 l/m 2 min 0 min 2,3 UV-I 777 W/m 0,0 km/h (0 Bft)
01.05.2013 12:20 16,2 C 22,9 C 60 % 1021,8 hPa 0,0 l/m 2 min 0 min 2,3 UV-I 777 W/m 0,0 km/h (0 Bft)
01.05.2013 12:22 16,2 C 23,4 C 60 % 1021,7 hPa 0,0 l/m 2 min 0 min 2,3 UV-I 777 W/m 0,0 km/h (0 Bft)
01.05.2013 12:24 16,2 C 24,0 C 60 % 1021,7 hPa 0,0 l/m 2 min 0 min 2,3 UV-I 777 W/m 0,0 km/h (0 Bft)
01.05.2013 12:26 16,2 C 24,6 C 60 % 1021,7 hPa 0,0 l/m 2 min 0 min 2,3 UV-I 777 W/m 0,0 km/h (0 Bft)
01.05.2013 12:28 16,2 C 22,9 C 60 % 1021,7 hPa 0,0 l/m 2 min 0 min 2,3 UV-I 777 W/m 0,0 km/h (0 Bft)
01.05.2013 12:30 16,2 C 21,2 C 60 % 1021,6 hPa 0,0 l/m 2 min 0 min 2,3 UV-I 777 W/m 0,0 km/h (0 Bft)
01.05.2013 12:32 16,2 C 22,3 C 60 % 1021,7 hPa 0,0 l/m 2 min 0 min 2,3 UV-I 777 W/m 0,0 km/h (0 Bft)
01.05.2013 12:34 16,2 C 22,9 C 60 % 1021,6 hPa 0,0 l/m 2 min 0 min 2,3 UV-I 777 W/m 0,0 km/h (0 Bft)
01.05.2013 12:36 16,2 C 21,2 C 60 % 1021,5 hPa 0,0 l/m 2 min 0 min 2,3 UV-I 777 W/m 0,0 km/h (0 Bft)
01.05.2013 12:38 16,2 C 20,7 C 60 % 1021,6 hPa 0,0 l/m 2 min 0 min 2,3 UV-I 777 W/m 0,0 km/h (0 Bft)
01.05.2013 12:40 16,2 C 20,1 C 60 % 1021,5 hPa 0,0 l/m 2 min 0 min 2,3 UV-I 777 W/m 0,0 km/h (0 Bft)
01.05.2013 12:42 16,2 C 19,0 C 60 % 1021,4 hPa 0,0 l/m 2 min 0 min 2,3 UV-I 777 W/m 0,0 km/h (0 Bft)
01.05.2013 12:44 16,2 C 18,4 C 60 % 1021,4 hPa 0,0 l/m 2 min 0 min 2,3 UV-I 777 W/m 0,0 km/h (0 Bft)
01.05.2013 12:46 16,2 C 17,9 C 60 % 1021,4 hPa 0,0 l/m 2 min 0 min 2,3 UV-I 777 W/m 0,0 km/h (0 Bft)
01.05.2013 12:48 16,2 C 17,3 C 60 % 1021,3 hPa 0,0 l/m 2 min 0 min 2,3 UV-I 777 W/m 0,0 km/h (0 Bft)
01.05.2013 12:50 16,2 C 17,9 C 60 % 1021,3 hPa 0,0 l/m 2 min 0 min 2,3 UV-I 777 W/m 0,0 km/h (0 Bft)
01.05.2013 12:52 16,2 C 17,9 C 60 % 1021,3 hPa 0,0 l/m 2 min 0 min 2,3 UV-I 777 W/m 0,0 km/h (0 Bft)
01.05.2013 12:54 16,2 C 17,9 C 60 % 1021,3 hPa 0,0 l/m 2 min 0 min 2,3 UV-I 777 W/m 0,0 km/h (0 Bft)
01.05.2013 12:56 16,2 C 18,4 C 60 % 1021,2 hPa 0,0 l/m 2 min 0 min 2,3 UV-I 777 W/m 0,0 km/h (0 Bft)
01.05.2013 12:58 16,2 C 19,0 C 60 % 1021,3 hPa 0,0 l/m 2 min 0 min 2,3 UV-I 777 W/m 0,0 km/h (0 Bft)
01.05.2013 13:00 16,2 C 19,0 C 60 % 1021,3 hPa 0,0 l/m 2 min 0 min 2,3 UV-I 777 W/m 0,0 km/h (0 Bft)
01.05.2013 13:02 16,2 C 18,4 C 60 % 1021,2 hPa 0,0 l/m 2 min 0 min 2,3 UV-I 777 W/m 0,0 km/h (0 Bft)
01.05.2013 13:04 16,2 C 18,4 C 60 % 1021,2 hPa 0,0 l/m 2 min 0 min 2,3 UV-I 777 W/m 0,0 km/h (0 Bft)
01.05.2013 13:06 16,2 C 18,4 C 60 % 1021,2 hPa 0,0 l/m 2 min 0 min 2,3 UV-I 777 W/m 0,0 km/h (0 Bft)
01.05.2013 13:08 16,2 C 19,0 C 60 % 1021,2 hPa 0,0 l/m 2 min 0 min 2,3 UV-I 777 W/m 0,0 km/h (0 Bft)
01.05.2013 13:10 16,2 C 20,1 C 60 % 1021,2 hPa 0,0 l/m 2 min 0 min 2,3 UV-I 777 W/m 0,0 km/h (0 Bft)
01.05.2013 13:12 16,2 C 20,1 C 60 % 1021,1 hPa 0,0 l/m 2 min 0 min 2,3 UV-I 777 W/m 0,0 km/h (0 Bft)
01.05.2013 13:14 16,2 C 19,6 C 60 % 1021,1 hPa 0,0 l/m 2 min 0 min 2,3 UV-I 777 W/m 0,0 km/h (0 Bft)
01.05.2013 13:16 16,2 C 19,6 C 60 % 1021,0 hPa 0,0 l/m 2 min 0 min 2,3 UV-I 777 W/m 0,0 km/h (0 Bft)
01.05.2013 13:18 16,2 C 19,6 C 60 % 1021,0 hPa 0,0 l/m 2 min 0 min 2,3 UV-I 777 W/m 0,0 km/h (0 Bft)
01.05.2013 13:20 16,2 C 18,4 C 60 % 1021,0 hPa 0,0 l/m 2 min 0 min 2,3 UV-I 777 W/m 0,0 km/h (0 Bft)
01.05.2013 13:22 16,2 C 19,0 C 60 % 1020,9 hPa 0,0 l/m 2 min 0 min 2,3 UV-I 777 W/m 0,0 km/h (0 Bft)
01.05.2013 13:24 16,2 C 20,1 C 60 % 1020,8 hPa 0,0 l/m 2 min 0 min 2,3 UV-I 777 W/m 0,0 km/h (0 Bft)
01.05.2013 13:26 16,2 C 21,2 C 60 % 1020,8 hPa 0,0 l/m 2 min 0 min 2,3 UV-I 777 W/m 0,0 km/h (0 Bft)
01.05.2013 13:28 16,2 C 20,1 C 60 % 1020,7 hPa 0,0 l/m 2 min 0 min 2,3 UV-I 777 W/m 5,1 km/h (1 Bft)
01.05.2013 13:30 16,2 C 19,6 C 60 % 1020,7 hPa 0,0 l/m 2 min 0 min 1,9 UV-I 777 W/m 12,9 km/h (3 Bft)
01.05.2013 13:32 16,2 C 19,0 C 60 % 1020,7 hPa 0,0 l/m 2 min 0 min 2,1 UV-I 777 W/m 7,7 km/h (2 Bft)
01.05.2013 13:34 16,2 C 19,6 C 60 % 1020,7 hPa 0,0 l/m 2 min 0 min 2,6 UV-I 777 W/m 10,3 km/h (2 Bft)
01.05.2013 13:36 16,2 C 19,6 C 60 % 1020,7 hPa 0,0 l/m 2 min 0 min 3,1 UV-I 568 W/m 7,7 km/h (2 Bft)
01.05.2013 13:38 16,2 C 20,1 C 60 % 1020,6 hPa 0,0 l/m 2 min 0 min 3,7 UV-I 520 W/m 10,3 km/h (2 Bft)
01.05.2013 13:40 16,2 C 21,8 C 60 % 1020,6 hPa 0,0 l/m 2 min 0 min 4,6 UV-I 1072 W/m 2,6 km/h (1 Bft)
01.05.2013 13:42 16,2 C 21,2 C 60 % 1020,6 hPa 0,0 l/m 2 min 0 min 3,5 UV-I 1014 W/m 10,3 km/h (2 Bft)
01.05.2013 13:44 16,2 C 20,7 C 60 % 1020,5 hPa 0,0 l/m 2 min 0 min 2,5 UV-I 1014 W/m 10,3 km/h (2 Bft)
01.05.2013 13:46 16,2 C 19,6 C 60 % 1020,4 hPa 0,0 l/m 2 min 0 min 2,6 UV-I 777 W/m 12,9 km/h (3 Bft)
01.05.2013 13:48 16,2 C 19,6 C 60 % 1020,5 hPa 0,2 l/m 2 min 0 min 4,3 UV-I 777 W/m 15,4 km/h (3 Bft)
01.05.2013 13:50 16,2 C 19,0 C 60 % 1020,5 hPa 0,0 l/m 2 min 0 min 2,4 UV-I 777 W/m 12,9 km/h (3 Bft)
01.05.2013 13:52 16,2 C 19,0 C 60 % 1020,4 hPa 0,0 l/m 2 min 0 min 4,1 UV-I 777 W/m 7,7 km/h (2 Bft)
01.05.2013 13:54 16,2 C 19,0 C 60 % 1020,4 hPa 0,0 l/m 2 min 0 min 2,4 UV-I 777 W/m 12,9 km/h (3 Bft)
01.05.2013 13:56 16,2 C 18,4 C 60 % 1020,4 hPa 0,0 l/m 2 min 0 min 2,2 UV-I 777 W/m 12,9 km/h (3 Bft)
01.05.2013 13:58 16,2 C 19,0 C 60 % 1020,4 hPa 0,0 l/m 2 min 0 min 2,3 UV-I 777 W/m 10,3 km/h (2 Bft)
01.05.2013 14:00 16,2 C 18,4 C 60 % 1020,4 hPa 0,0 l/m 2 min 0 min 2,6 UV-I 777 W/m 5,1 km/h (1 Bft)
01.05.2013 14:02 16,2 C 19,0 C 60 % 1020,4 hPa 0,0 l/m 2 min 0 min 3,3 UV-I 619 W/m 18,0 km/h (3 Bft)
01.05.2013 14:04 16,2 C 19,6 C 60 % 1020,4 hPa 0,0 l/m 2 min 0 min 2,9 UV-I 619 W/m 5,1 km/h (1 Bft)
01.05.2013 14:06 16,2 C 19,6 C 60 % 1020,4 hPa 0,0 l/m 2 min 0 min 2,2 UV-I 777 W/m 2,6 km/h (1 Bft)
01.05.2013 14:08 16,2 C 19,0 C 60 % 1020,4 hPa 0,0 l/m 2 min 0 min 2,2 UV-I 777 W/m 2,6 km/h (1 Bft)
01.05.2013 14:10 16,2 C 19,0 C 60 % 1020,3 hPa 0,0 l/m 2 min 0 min 3,6 UV-I 777 W/m 2,6 km/h (1 Bft)
01.05.2013 14:12 16,2 C 19,6 C 60 % 1020,3 hPa 0,0 l/m 2 min 0 min 4,0 UV-I 777 W/m 15,4 km/h (3 Bft)
01.05.2013 14:14 16,2 C 19,0 C 60 % 1020,3 hPa 0,0 l/m 2 min 0 min 2,2 UV-I 777 W/m 12,9 km/h (3 Bft)
01.05.2013 14:16 16,2 C 17,9 C 60 % 1020,3 hPa 0,0 l/m 2 min 0 min 2,0 UV-I 777 W/m 0,0 km/h (0 Bft)
01.05.2013 14:18 16,2 C 17,9 C 60 % 1020,2 hPa 0,0 l/m 2 min 0 min 2,2 UV-I 777 W/m 10,3 km/h (2 Bft)
01.05.2013 14:20 16,2 C 18,4 C 60 % 1020,2 hPa 0,0 l/m 2 min 0 min 3,1 UV-I 504 W/m 20,6 km/h (4 Bft)
01.05.2013 14:22 16,2 C 17,9 C 60 % 1020,1 hPa 0,0 l/m 2 min 0 min 3,1 UV-I 844 W/m 18,0 km/h (3 Bft)
01.05.2013 14:24 16,2 C 18,4 C 60 % 1020,1 hPa 0,0 l/m 2 min 0 min 2,7 UV-I 844 W/m 25,7 km/h (4 Bft)
01.05.2013 14:26 16,2 C 19,0 C 60 % 1020,1 hPa 0,0 l/m 2 min 0 min 3,6 UV-I 875 W/m 20,6 km/h (4 Bft)
01.05.2013 14:28 16,2 C 18,4 C 60 % 1020,1 hPa 0,0 l/m 2 min 0 min 2,1 UV-I 856 W/m 10,3 km/h (2 Bft)
01.05.2013 14:30 16,2 C 17,9 C 60 % 1020,1 hPa 0,0 l/m 0 min 0 min 2,0 UV-I 272 W/m 5,1 km/h (1 Bft)
01.05.2013 14:32 16,2 C 17,9 C 60 % 1020,0 hPa 0,0 l/m 0 min 0 min 2,1 UV-I 371 W/m 10,3 km/h (2 Bft)
01.05.2013 14:34 16,2 C 17,9 C 60 % 1020,0 hPa 0,0 l/m 2 min 0 min 4,0 UV-I 905 W/m 5,1 km/h (1 Bft)
01.05.2013 14:36 16,2 C 17,9 C 60 % 1020,0 hPa 0,0 l/m 2 min 0 min 4,1 UV-I 912 W/m 2,6 km/h (1 Bft)
01.05.2013 14:38 16,2 C 19,0 C 60 % 1019,8 hPa 0,0 l/m 2 min 0 min 3,6 UV-I 979 W/m 12,9 km/h (3 Bft)
01.05.2013 14:40 16,2 C 19,6 C 60 % 1019,8 hPa 0,0 l/m 2 min 0 min 3,5 UV-I 940 W/m 10,3 km/h (2 Bft)
01.05.2013 14:42 16,2 C 19,6 C 60 % 1019,7 hPa 0,0 l/m 2 min 0 min 2,2 UV-I 940 W/m 18,0 km/h (3 Bft)
01.05.2013 14:44 16,2 C 19,0 C 60 % 1019,6 hPa 0,0 l/m 0 min 0 min 1,8 UV-I 301 W/m 20,6 km/h (4 Bft)
01.05.2013 14:46 16,2 C 19,0 C 60 % 1019,7 hPa 0,0 l/m 0 min 0 min 1,9 UV-I 332 W/m 20,6 km/h (4 Bft)
01.05.2013 14:48 16,2 C 19,0 C 60 % 1019,7 hPa 0,0 l/m 2 min 0 min 3,5 UV-I 951 W/m 12,9 km/h (3 Bft)
01.05.2013 14:50 16,2 C 18,4 C 60 % 1019,6 hPa 0,0 l/m 2 min 0 min 2,5 UV-I 427 W/m 10,3 km/h (2 Bft)
01.05.2013 14:52 16,2 C 18,4 C 60 % 1019,6 hPa 0,0 l/m 2 min 0 min 2,4 UV-I 427 W/m 10,3 km/h (2 Bft)
01.05.2013 14:54 16,2 C 18,4 C 60 % 1019,6 hPa 0,0 l/m 0 min 0 min 2,0 UV-I 304 W/m 12,9 km/h (3 Bft)
01.05.2013 14:56 16,2 C 17,9 C 60 % 1019,6 hPa 0,0 l/m 0 min 0 min 3,1 UV-I 369 W/m 10,3 km/h (2 Bft)
01.05.2013 14:58 16,2 C 18,4 C 60 % 1019,5 hPa 0,0 l/m 2 min 0 min 2,8 UV-I 436 W/m 2,6 km/h (1 Bft)
01.05.2013 15:00 16,2 C 18,4 C 60 % 1019,6 hPa 0,0 l/m 2 min 0 min 3,4 UV-I 773 W/m 5,1 km/h (1 Bft)
01.05.2013 15:02 16,2 C 19,0 C 60 % 1019,6 hPa 0,0 l/m 2 min 0 min 3,6 UV-I 886 W/m 25,7 km/h (4 Bft)
01.05.2013 15:04 16,2 C 19,0 C 60 % 1019,5 hPa 0,0 l/m 2 min 0 min 3,3 UV-I 828 W/m 18,0 km/h (3 Bft)
01.05.2013 15:06 16,2 C 19,6 C 60 % 1019,4 hPa 0,0 l/m 2 min 0 min 3,6 UV-I 847 W/m 12,9 km/h (3 Bft)
01.05.2013 15:08 16,2 C 19,0 C 60 % 1019,5 hPa 0,0 l/m 2 min 0 min 3,1 UV-I 789 W/m 10,3 km/h (2 Bft)
01.05.2013 15:10 16,2 C 17,9 C 60 % 1019,4 hPa 0,0 l/m 2 min 0 min 2,7 UV-I 789 W/m 20,6 km/h (4 Bft)
01.05.2013 15:12 16,2 C 18,4 C 60 % 1019,4 hPa 0,0 l/m 2 min 0 min 3,6 UV-I 847 W/m 7,7 km/h (2 Bft)
01.05.2013 15:14 16,2 C 19,0 C 60 % 1019,4 hPa 0,0 l/m 2 min 0 min 3,3 UV-I 812 W/m 15,4 km/h (3 Bft)
01.05.2013 15:16 16,2 C 19,0 C 60 % 1019,4 hPa 0,0 l/m 2 min 0 min 3,4 UV-I 816 W/m 10,3 km/h (2 Bft)
01.05.2013 15:18 16,2 C 19,6 C 60 % 1019,4 hPa 0,0 l/m 2 min 0 min 3,3 UV-I 830 W/m 10,3 km/h (2 Bft)
01.05.2013 15:20 16,2 C 20,1 C 60 % 1019,4 hPa 0,0 l/m 2 min 0 min 3,2 UV-I 860 W/m 15,4 km/h (3 Bft)
01.05.2013 15:22 16,2 C 20,1 C 60 % 1019,4 hPa 0,0 l/m 2 min 0 min 1,8 UV-I 898 W/m 20,6 km/h (4 Bft)
01.05.2013 15:24 16,2 C 19,6 C 60 % 1019,4 hPa 0,0 l/m 0 min 0 min 1,7 UV-I 315 W/m 12,9 km/h (3 Bft)
01.05.2013 15:26 16,2 C 19,6 C 60 % 1019,4 hPa 0,0 l/m 0 min 0 min 1,8 UV-I 352 W/m 10,3 km/h (2 Bft)
01.05.2013 15:28 16,2 C 19,6 C 60 % 1019,4 hPa 0,0 l/m 0 min 0 min 2,8 UV-I 380 W/m 12,9 km/h (3 Bft)
01.05.2013 15:30 16,2 C 20,1 C 60 % 1019,4 hPa 0,0 l/m 0 min 0 min 3,1 UV-I 380 W/m 7,7 km/h (2 Bft)
01.05.2013 15:32 16,2 C 21,2 C 60 % 1019,3 hPa 0,0 l/m 2 min 0 min 2,0 UV-I 882 W/m 7,7 km/h (2 Bft)
01.05.2013 15:34 16,2 C 20,7 C 60 % 1019,3 hPa 0,0 l/m 2 min 0 min 2,3 UV-I 494 W/m 10,3 km/h (2 Bft)
01.05.2013 15:36 16,2 C 22,3 C 60 % 1019,4 hPa 0,0 l/m 2 min 0 min 3,1 UV-I 893 W/m 2,6 km/h (1 Bft)
01.05.2013 15:38 16,2 C 22,9 C 60 % 1019,4 hPa 0,0 l/m 2 min 0 min 2,3 UV-I 893 W/m 5,1 km/h (1 Bft)
01.05.2013 15:42 16,2 C 21,8 C 60 % 1019,2 hPa 0,0 l/m 0 min 0 min 1,7 UV-I 350 W/m 10,3 km/h (2 Bft)
01.05.2013 15:44 16,2 C 21,2 C 60 % 1019,2 hPa 0,0 l/m 2 min 0 min 2,3 UV-I 431 W/m 10,3 km/h (2 Bft)
01.05.2013 15:46 16,2 C 21,2 C 60 % 1019,1 hPa 0,0 l/m 2 min 0 min 2,3 UV-I 431 W/m 12,9 km/h (3 Bft)
01.05.2013 15:48 16,2 C 21,2 C 60 % 1019,2 hPa 0,0 l/m 2 min 0 min 1,9 UV-I 872 W/m 10,3 km/h (2 Bft)
01.05.2013 15:50 16,2 C 21,2 C 60 % 1019,2 hPa 0,0 l/m 0 min 0 min 1,4 UV-I 336 W/m 15,4 km/h (3 Bft)
01.05.2013 15:52 16,2 C 20,1 C 60 % 1019,2 hPa 0,0 l/m 0 min 0 min 1,3 UV-I 318 W/m 10,3 km/h (2 Bft)
01.05.2013 15:54 16,2 C 20,1 C 60 % 1019,2 hPa 0,0 l/m 0 min 0 min 1,3 UV-I 323 W/m 7,7 km/h (2 Bft)
01.05.2013 15:55 19,0 C 20,1 C 60 % 1019,1 hPa 0,0 l/m 0 min 0 min 1,4 UV-I 330 W/m 10,3 km/h (2 Bft)
01.05.2013 15:58 19,0 C 20,1 C 60 % 1019,0 hPa 0,0 l/m 0 min 0 min 1,3 UV-I 287 W/m 10,3 km/h (2 Bft)
01.05.2013 16:00 19,1 C 19,6 C 60 % 1019,1 hPa 0,0 l/m 0 min 0 min 1,3 UV-I 274 W/m 23,2 km/h (4 Bft)
01.05.2013 16:02 19,1 C 19,0 C 60 % 1019,1 hPa 0,0 l/m 0 min 0 min 1,4 UV-I 297 W/m 12,9 km/h (3 Bft)
01.05.2013 16:04 19,1 C 19,6 C 60 % 1019,1 hPa 0,0 l/m 0 min 0 min 2,6 UV-I 320 W/m 7,7 km/h (2 Bft)
01.05.2013 16:08 19,1 C 20,1 C 60 % 1019,0 hPa 0,0 l/m 2 min 0 min 2,2 UV-I 403 W/m 10,3 km/h (2 Bft)
01.05.2013 16:10 19,1 C 20,1 C 60 % 1018,9 hPa 0,0 l/m 0 min 0 min 1,7 UV-I 352 W/m 10,3 km/h (2 Bft)
01.05.2013 16:12 19,1 C 20,1 C 60 % 1018,8 hPa 0,0 l/m 2 min 0 min 2,4 UV-I 807 W/m 10,3 km/h (2 Bft)
01.05.2013 16:14 19,1 C 21,2 C 55 % 1018,9 hPa 0,0 l/m 2 min 0 min 2,3 UV-I 721 W/m 10,3 km/h (2 Bft)
01.05.2013 16:18 19,1 C 22,3 C 55 % 1018,9 hPa 0,0 l/m 2 min 0 min 1,3 UV-I 745 W/m 7,7 km/h (2 Bft)
01.05.2013 16:20 19,1 C 21,2 C 55 % 1018,9 hPa 0,0 l/m 0 min 0 min 1,7 UV-I 295 W/m 33,5 km/h (5 Bft)
01.05.2013 16:22 19,1 C 21,2 C 55 % 1018,9 hPa 0,0 l/m 2 min 0 min 1,6 UV-I 497 W/m 5,1 km/h (1 Bft)
01.05.2013 16:24 19,1 C 20,1 C 55 % 1018,9 hPa 0,0 l/m 0 min 0 min 1,4 UV-I 272 W/m 12,9 km/h (3 Bft)
01.05.2013 16:26 19,1 C 20,1 C 55 % 1018,8 hPa 0,0 l/m 0 min 0 min 2,2 UV-I 294 W/m 12,9 km/h (3 Bft)
01.05.2013 16:28 19,1 C 20,7 C 55 % 1018,9 hPa 0,0 l/m 2 min 0 min 2,1 UV-I 717 W/m 12,9 km/h (3 Bft)
01.05.2013 16:30 19,1 C 20,7 C 55 % 1018,8 hPa 0,0 l/m 2 min 0 min 1,5 UV-I 714 W/m 10,3 km/h (2 Bft)
01.05.2013 16:32 19,1 C 20,1 C 55 % 1018,8 hPa 0,0 l/m 0 min 0 min 1,9 UV-I 338 W/m 15,4 km/h (3 Bft)
01.05.2013 16:34 19,1 C 20,1 C 55 % 1018,8 hPa 0,0 l/m 2 min 0 min 2,0 UV-I 719 W/m 2,6 km/h (1 Bft)
01.05.2013 16:35 20,4 C 21,2 C 52 % 1018,9 hPa 0,0 l/m 1 min 0 min 2,0 UV-I 719 W/m 15,4 km/h (3 Bft)
01.05.2013 16:38 20,4 C 20,7 C 51 % 1018,9 hPa 0,0 l/m 0 min 0 min 1,2 UV-I 306 W/m 5,1 km/h (1 Bft)
01.05.2013 16:40 19,9 C 20,1 C 53 % 1018,9 hPa 0,0 l/m 0 min 0 min 1,4 UV-I 322 W/m 7,7 km/h (2 Bft)
01.05.2013 16:42 19,8 C 20,1 C 53 % 1018,8 hPa 0,0 l/m 2 min 0 min 1,2 UV-I 343 W/m 5,1 km/h (1 Bft)
01.05.2013 16:44 19,8 C 20,1 C 53 % 1018,8 hPa 0,0 l/m 2 min 0 min 1,1 UV-I 336 W/m 0,0 km/h (0 Bft)
01.05.2013 16:46 19,8 C 20,1 C 53 % 1018,8 hPa 0,0 l/m 2 min 0 min 1,1 UV-I 338 W/m 10,3 km/h (2 Bft)
01.05.2013 16:48 19,7 C 20,1 C 54 % 1018,9 hPa 0,0 l/m 0 min 0 min 1,0 UV-I 315 W/m 5,1 km/h (1 Bft)
01.05.2013 16:50 19,8 C 20,1 C 55 % 1018,8 hPa 0,0 l/m 0 min 0 min 0,9 UV-I 292 W/m 2,6 km/h (1 Bft)
01.05.2013 16:52 19,7 C 20,1 C 54 % 1018,9 hPa 0,0 l/m 0 min 0 min 0,8 UV-I 227 W/m 5,1 km/h (1 Bft)
01.05.2013 16:54 19,6 C 19,6 C 53 % 1018,9 hPa 0,0 l/m 0 min 0 min 0,6 UV-I 197 W/m 7,7 km/h (2 Bft)
01.05.2013 16:56 19,3 C 19,0 C 55 % 1018,9 hPa 0,0 l/m 0 min 0 min 0,6 UV-I 186 W/m 7,7 km/h (2 Bft)
01.05.2013 16:58 18,9 C 18,4 C 54 % 1018,9 hPa 0,0 l/m 0 min 0 min 0,6 UV-I 174 W/m 15,4 km/h (3 Bft)
01.05.2013 17:00 18,8 C 18,4 C 55 % 1018,8 hPa 0,0 l/m 0 min 0 min 0,6 UV-I 172 W/m 10,3 km/h (2 Bft)
01.05.2013 17:02 18,7 C 18,4 C 56 % 1018,9 hPa 0,0 l/m 0 min 0 min 0,6 UV-I 181 W/m 7,7 km/h (2 Bft)
01.05.2013 17:04 18,6 C 17,9 C 55 % 1018,8 hPa 0,0 l/m 0 min 0 min 0,6 UV-I 206 W/m 10,3 km/h (2 Bft)
01.05.2013 17:06 18,6 C 17,9 C 56 % 1018,9 hPa 0,0 l/m 0 min 0 min 0,6 UV-I 207 W/m 10,3 km/h (2 Bft)
01.05.2013 17:08 18,7 C 17,9 C 56 % 1018,8 hPa 0,0 l/m 0 min 0 min 0,7 UV-I 229 W/m 0,0 km/h (0 Bft)
01.05.2013 17:10 18,7 C 17,9 C 58 % 1018,9 hPa 0,0 l/m 0 min 0 min 0,7 UV-I 265 W/m 2,6 km/h (1 Bft)
01.05.2013 17:12 18,7 C 18,4 C 55 % 1018,8 hPa 0,0 l/m 0 min 0 min 0,7 UV-I 281 W/m 10,3 km/h (2 Bft)
01.05.2013 17:14 18,7 C 18,4 C 55 % 1018,8 hPa 0,0 l/m 0 min 0 min 1,1 UV-I 281 W/m 7,7 km/h (2 Bft)
01.05.2013 17:16 18,8 C 18,4 C 55 % 1018,8 hPa 0,0 l/m 2 min 0 min 1,0 UV-I 598 W/m 5,1 km/h (1 Bft)
01.05.2013 17:18 18,9 C 18,4 C 55 % 1018,8 hPa 0,0 l/m 0 min 0 min 0,5 UV-I 237 W/m 10,3 km/h (2 Bft)
01.05.2013 17:20 18,9 C 18,4 C 55 % 1018,8 hPa 0,0 l/m 0 min 0 min 0,0 UV-I 206 W/m 7,7 km/h (2 Bft)
01.05.2013 17:22 18,9 C 18,4 C 55 % 1018,8 hPa 0,0 l/m 0 min 0 min 0,0 UV-I 193 W/m 7,7 km/h (2 Bft)
01.05.2013 17:24 19,0 C 18,4 C 55 % 1018,8 hPa 0,0 l/m 0 min 0 min 0,0 UV-I 186 W/m 12,9 km/h (3 Bft)
01.05.2013 17:26 19,0 C 18,4 C 55 % 1018,7 hPa 0,0 l/m 0 min 0 min 0,0 UV-I 185 W/m 0,0 km/h (0 Bft)
01.05.2013 17:28 18,9 C 18,4 C 55 % 1018,7 hPa 0,0 l/m 0 min 0 min 0,0 UV-I 176 W/m 2,6 km/h (1 Bft)
01.05.2013 17:30 18,8 C 17,9 C 55 % 1018,7 hPa 0,0 l/m 0 min 0 min 0,0 UV-I 163 W/m 0,0 km/h (0 Bft)
01.05.2013 17:32 18,7 C 17,9 C 55 % 1018,6 hPa 0,0 l/m 0 min 0 min 0,0 UV-I 162 W/m 0,0 km/h (0 Bft)
01.05.2013 17:34 18,8 C 17,9 C 56 % 1018,7 hPa 0,0 l/m 0 min 0 min 0,0 UV-I 174 W/m 10,3 km/h (2 Bft)
01.05.2013 17:36 18,8 C 17,9 C 55 % 1018,6 hPa 0,0 l/m 0 min 0 min 0,0 UV-I 181 W/m 10,3 km/h (2 Bft)
01.05.2013 17:38 18,8 C 17,9 C 55 % 1018,7 hPa 0,0 l/m 0 min 0 min 0,0 UV-I 190 W/m 7,7 km/h (2 Bft)
01.05.2013 17:40 18,8 C 17,9 C 56 % 1018,7 hPa 0,0 l/m 0 min 0 min 0,0 UV-I 181 W/m 2,6 km/h (1 Bft)
01.05.2013 17:42 18,8 C 17,9 C 55 % 1018,7 hPa 0,0 l/m 0 min 0 min 0,0 UV-I 163 W/m 5,1 km/h (1 Bft)
01.05.2013 17:44 18,7 C 17,9 C 55 % 1018,6 hPa 0,0 l/m 0 min 0 min 0,0 UV-I 149 W/m 12,9 km/h (3 Bft)
01.05.2013 17:46 18,6 C 17,9 C 56 % 1018,6 hPa 0,0 l/m 0 min 0 min 0,0 UV-I 132 W/m 12,9 km/h (3 Bft)
01.05.2013 17:48 18,6 C 17,9 C 56 % 1018,6 hPa 0,0 l/m 0 min 0 min 0,0 UV-I 132 W/m 12,9 km/h (3 Bft)
01.05.2013 17:50 18,6 C 17,9 C 56 % 1018,6 hPa 0,0 l/m 0 min 0 min 0,0 UV-I 139 W/m 0,0 km/h (0 Bft)
01.05.2013 17:52 18,6 C 17,9 C 57 % 1018,7 hPa 0,0 l/m 0 min 0 min 0,0 UV-I 128 W/m 2,6 km/h (1 Bft)
01.05.2013 17:54 18,7 C 17,3 C 56 % 1018,6 hPa 0,0 l/m 0 min 0 min 0,0 UV-I 121 W/m 0,0 km/h (0 Bft)
01.05.2013 17:56 18,7 C 17,3 C 57 % 1018,6 hPa 0,0 l/m 0 min 0 min 0,0 UV-I 121 W/m 2,6 km/h (1 Bft)
01.05.2013 17:58 18,7 C 17,3 C 56 % 1018,7 hPa 0,0 l/m 0 min 0 min 0,0 UV-I 123 W/m 15,4 km/h (3 Bft)
01.05.2013 18:00 18,6 C 17,3 C 57 % 1018,6 hPa 0,0 l/m 0 min 0 min 0,0 UV-I 116 W/m 7,7 km/h (2 Bft)
01.05.2013 18:02 18,6 C 17,3 C 56 % 1018,7 hPa 0,0 l/m 0 min 0 min 0,0 UV-I 113 W/m 7,7 km/h (2 Bft)
01.05.2013 18:04 18,5 C 17,3 C 56 % 1018,6 hPa 0,0 l/m 0 min 0 min 0,0 UV-I 113 W/m 5,1 km/h (1 Bft)
01.05.2013 18:06 18,5 C 17,3 C 57 % 1018,6 hPa 0,0 l/m 0 min 0 min 0,0 UV-I 116 W/m 0,0 km/h (0 Bft)
01.05.2013 18:08 18,5 C 17,3 C 57 % 1018,6 hPa 0,0 l/m 0 min 0 min 0,0 UV-I 127 W/m 2,6 km/h (1 Bft)
01.05.2013 18:10 18,4 C 17,3 C 56 % 1018,7 hPa 0,0 l/m 0 min 0 min 0,0 UV-I 134 W/m 7,7 km/h (2 Bft)
01.05.2013 18:12 18,4 C 17,3 C 56 % 1018,7 hPa 0,0 l/m 0 min 0 min 0,0 UV-I 134 W/m 10,3 km/h (2 Bft)
01.05.2013 18:14 18,3 C 17,3 C 57 % 1018,7 hPa 0,0 l/m 0 min 0 min 0,0 UV-I 128 W/m 10,3 km/h (2 Bft)
01.05.2013 18:16 18,3 C 17,3 C 57 % 1018,7 hPa 0,0 l/m 0 min 0 min 0,0 UV-I 127 W/m 18,0 km/h (3 Bft)
01.05.2013 18:18 18,2 C 17,3 C 57 % 1018,7 hPa 0,0 l/m 0 min 0 min 0,0 UV-I 125 W/m 10,3 km/h (2 Bft)
01.05.2013 18:20 18,2 C 16,8 C 57 % 1018,7 hPa 0,0 l/m 0 min 0 min 0,0 UV-I 118 W/m 2,6 km/h (1 Bft)
01.05.2013 18:22 18,2 C 16,8 C 58 % 1018,8 hPa 0,0 l/m 0 min 0 min 0,0 UV-I 109 W/m 5,1 km/h (1 Bft)
01.05.2013 18:24 18,2 C 16,8 C 57 % 1018,7 hPa 0,0 l/m 0 min 0 min 0,0 UV-I 102 W/m 10,3 km/h (2 Bft)
01.05.2013 18:26 18,2 C 16,8 C 58 % 1018,7 hPa 0,0 l/m 0 min 0 min 0,0 UV-I 95 W/m 0,0 km/h (0 Bft)
01.05.2013 18:28 18,3 C 16,8 C 58 % 1018,7 hPa 0,0 l/m 0 min 0 min 0,0 UV-I 93 W/m 5,1 km/h (1 Bft)
01.05.2013 18:30 18,3 C 16,8 C 57 % 1018,7 hPa 0,0 l/m 0 min 0 min 0,0 UV-I 93 W/m 7,7 km/h (2 Bft)
01.05.2013 18:32 18,3 C 16,8 C 57 % 1018,7 hPa 0,0 l/m 0 min 0 min 0,0 UV-I 97 W/m 7,7 km/h (2 Bft)
01.05.2013 18:34 18,3 C 16,8 C 58 % 1018,7 hPa 0,0 l/m 0 min 0 min 0,0 UV-I 97 W/m 10,3 km/h (2 Bft)
01.05.2013 18:36 18,2 C 16,8 C 57 % 1018,7 hPa 0,0 l/m 0 min 0 min 0,0 UV-I 97 W/m 10,3 km/h (2 Bft)
01.05.2013 18:38 18,2 C 16,8 C 57 % 1018,7 hPa 0,0 l/m 0 min 0 min 0,0 UV-I 98 W/m 2,6 km/h (1 Bft)
01.05.2013 18:40 18,2 C 16,8 C 57 % 1018,7 hPa 0,0 l/m 0 min 0 min 0,0 UV-I 98 W/m 2,6 km/h (1 Bft)
01.05.2013 18:42 18,2 C 16,8 C 58 % 1018,7 hPa 0,0 l/m 0 min 0 min 0,0 UV-I 97 W/m 5,1 km/h (1 Bft)
01.05.2013 18:44 18,2 C 16,8 C 58 % 1018,7 hPa 0,0 l/m 0 min 0 min 0,0 UV-I 95 W/m 0,0 km/h (0 Bft)
01.05.2013 18:46 18,2 C 16,8 C 57 % 1018,6 hPa 0,0 l/m 0 min 0 min 0,0 UV-I 97 W/m 0,0 km/h (0 Bft)
01.05.2013 18:48 18,2 C 16,8 C 58 % 1018,7 hPa 0,0 l/m 0 min 0 min 0,0 UV-I 98 W/m 0,0 km/h (0 Bft)
01.05.2013 18:50 18,2 C 16,8 C 59 % 1018,7 hPa 0,0 l/m 0 min 0 min 0,0 UV-I 98 W/m 0,0 km/h (0 Bft)
01.05.2013 18:52 18,2 C 16,8 C 58 % 1018,7 hPa 0,0 l/m 0 min 0 min 0,0 UV-I 100 W/m 0,0 km/h (0 Bft)
01.05.2013 18:54 18,2 C 16,8 C 57 % 1018,6 hPa 0,0 l/m 0 min 0 min 0,0 UV-I 100 W/m 2,6 km/h (1 Bft)
01.05.2013 18:56 18,2 C 16,8 C 58 % 1018,7 hPa 0,0 l/m 0 min 0 min 0,0 UV-I 102 W/m 2,6 km/h (1 Bft)
01.05.2013 18:58 18,2 C 16,8 C 59 % 1018,6 hPa 0,0 l/m 0 min 0 min 0,0 UV-I 98 W/m 0,0 km/h (0 Bft)
01.05.2013 19:00 18,2 C 16,8 C 58 % 1018,6 hPa 0,0 l/m 0 min 0 min 0,0 UV-I 93 W/m 0,0 km/h (0 Bft)
01.05.2013 19:02 18,2 C 16,8 C 59 % 1018,6 hPa 0,0 l/m 0 min 0 min 0,0 UV-I 84 W/m 0,0 km/h (0 Bft)
01.05.2013 19:04 18,2 C 16,8 C 58 % 1018,6 hPa 0,0 l/m 0 min 0 min 0,0 UV-I 84 W/m 0,0 km/h (0 Bft)
01.05.2013 19:06 18,2 C 16,8 C 58 % 1018,6 hPa 0,0 l/m 0 min 0 min 0,0 UV-I 86 W/m 0,0 km/h (0 Bft)
01.05.2013 19:08 18,2 C 16,8 C 58 % 1018,6 hPa 0,0 l/m 0 min 0 min 0,0 UV-I 88 W/m 0,0 km/h (0 Bft)
01.05.2013 19:10 18,2 C 16,8 C 59 % 1018,6 hPa 0,0 l/m 0 min 0 min 0,0 UV-I 84 W/m 0,0 km/h (0 Bft)
01.05.2013 19:12 18,3 C 16,8 C 59 % 1018,5 hPa 0,0 l/m 0 min 0 min 0,0 UV-I 81 W/m 0,0 km/h (0 Bft)
01.05.2013 19:14 18,3 C 16,8 C 58 % 1018,5 hPa 0,0 l/m 0 min 0 min 0,0 UV-I 76 W/m 2,6 km/h (1 Bft)
01.05.2013 19:16 18,3 C 16,8 C 58 % 1018,5 hPa 0,0 l/m 0 min 0 min 0,0 UV-I 77 W/m 7,7 km/h (2 Bft)
01.05.2013 19:18 18,3 C 16,8 C 58 % 1018,5 hPa 0,0 l/m 0 min 0 min 0,0 UV-I 84 W/m 7,7 km/h (2 Bft)
01.05.2013 19:20 18,3 C 16,8 C 58 % 1018,5 hPa 0,0 l/m 0 min 0 min 0,0 UV-I 95 W/m 7,7 km/h (2 Bft)
01.05.2013 19:22 18,2 C 16,8 C 58 % 1018,4 hPa 0,0 l/m 0 min 0 min 0,0 UV-I 98 W/m 0,0 km/h (0 Bft)
01.05.2013 19:24 18,2 C 16,8 C 58 % 1018,4 hPa 0,0 l/m 0 min 0 min 0,0 UV-I 97 W/m 2,6 km/h (1 Bft)
01.05.2013 19:26 18,2 C 16,8 C 58 % 1018,4 hPa 0,0 l/m 0 min 0 min 0,0 UV-I 97 W/m 2,6 km/h (1 Bft)
01.05.2013 19:28 18,2 C 16,8 C 58 % 1018,3 hPa 0,0 l/m 0 min 0 min 0,0 UV-I 100 W/m 0,0 km/h (0 Bft)
01.05.2013 19:30 18,2 C 16,8 C 58 % 1018,3 hPa 0,0 l/m 0 min 0 min 0,0 UV-I 102 W/m 0,0 km/h (0 Bft)
01.05.2013 19:32 18,2 C 16,8 C 58 % 1018,3 hPa 0,0 l/m 0 min 0 min 0,0 UV-I 97 W/m 0,0 km/h (0 Bft)
01.05.2013 19:34 18,1 C 16,2 C 58 % 1018,2 hPa 0,0 l/m 0 min 0 min 0,0 UV-I 90 W/m 10,3 km/h (2 Bft)
01.05.2013 19:36 18,1 C 16,2 C 58 % 1018,2 hPa 0,0 l/m 0 min 0 min 0,0 UV-I 83 W/m 2,6 km/h (1 Bft)
01.05.2013 19:40 17,1 C 16,2 C 59 % 1018,2 hPa 0,0 l/m 0 min 0 min 0,0 UV-I 79 W/m 5,1 km/h (1 Bft)
01.05.2013 19:42 17,0 C 16,2 C 59 % 1018,0 hPa 0,0 l/m 0 min 0 min 0,0 UV-I 74 W/m 7,7 km/h (2 Bft)
01.05.2013 19:44 16,9 C 15,7 C 59 % 1018,1 hPa 0,0 l/m 0 min 0 min 0,0 UV-I 69 W/m 2,6 km/h (1 Bft)
01.05.2013 19:46 16,9 C 15,7 C 59 % 1018,1 hPa 0,0 l/m 0 min 0 min 0,0 UV-I 65 W/m 2,6 km/h (1 Bft)
01.05.2013 19:48 16,9 C 15,7 C 59 % 1018,1 hPa 0,0 l/m 0 min 0 min 0,0 UV-I 58 W/m 2,6 km/h (1 Bft)
01.05.2013 19:50 16,8 C 15,7 C 60 % 1018,0 hPa 0,0 l/m 0 min 0 min 0,0 UV-I 56 W/m 0,0 km/h (0 Bft)
01.05.2013 19:52 16,8 C 15,7 C 60 % 1018,0 hPa 0,0 l/m 0 min 0 min 0,0 UV-I 54 W/m 2,6 km/h (1 Bft)
01.05.2013 19:54 16,7 C 15,7 C 60 % 1018,2 hPa 0,0 l/m 0 min 0 min 0,0 UV-I 53 W/m 2,6 km/h (1 Bft)
01.05.2013 19:56 16,7 C 15,1 C 60 % 1018,2 hPa 0,0 l/m 0 min 0 min 0,0 UV-I 51 W/m 0,0 km/h (0 Bft)
01.05.2013 19:58 16,6 C 15,1 C 60 % 1018,3 hPa 0,0 l/m 0 min 0 min 0,0 UV-I 47 W/m 0,0 km/h (0 Bft)
01.05.2013 20:00 16,6 C 15,1 C 60 % 1018,3 hPa 0,0 l/m 0 min 0 min 0,0 UV-I 44 W/m 7,7 km/h (2 Bft)
01.05.2013 20:02 16,6 C 15,7 C 60 % 1018,4 hPa 0,0 l/m 0 min 0 min 0,0 UV-I 42 W/m 2,6 km/h (1 Bft)
01.05.2013 20:04 16,6 C 15,7 C 60 % 1018,4 hPa 0,0 l/m 0 min 0 min 0,0 UV-I 40 W/m 2,6 km/h (1 Bft)
01.05.2013 20:06 16,6 C 15,7 C 61 % 1018,4 hPa 0,0 l/m 0 min 0 min 0,0 UV-I 37 W/m 0,0 km/h (0 Bft)
01.05.2013 20:08 16,6 C 15,7 C 60 % 1018,4 hPa 0,0 l/m 0 min 0 min 0,0 UV-I 33 W/m 2,6 km/h (1 Bft)
01.05.2013 20:10 16,6 C 15,7 C 60 % 1018,5 hPa 0,0 l/m 0 min 0 min 0,0 UV-I 32 W/m 0,0 km/h (0 Bft)
01.05.2013 20:12 16,6 C 15,7 C 60 % 1018,5 hPa 0,0 l/m 0 min 0 min 0,0 UV-I 28 W/m 0,0 km/h (0 Bft)
01.05.2013 20:14 16,5 C 15,1 C 60 % 1018,5 hPa 0,0 l/m 0 min 0 min 0,0 UV-I 28 W/m 0,0 km/h (0 Bft)
01.05.2013 20:16 16,5 C 15,1 C 60 % 1018,5 hPa 0,0 l/m 0 min 0 min 0,0 UV-I 26 W/m 0,0 km/h (0 Bft)
01.05.2013 20:18 16,4 C 15,1 C 60 % 1018,6 hPa 0,0 l/m 0 min 0 min 0,0 UV-I 23 W/m 2,6 km/h (1 Bft)
01.05.2013 20:20 16,4 C 15,1 C 61 % 1018,6 hPa 0,0 l/m 0 min 0 min 0,0 UV-I 19 W/m 2,6 km/h (1 Bft)
01.05.2013 20:22 16,4 C 15,1 C 61 % 1018,7 hPa 0,0 l/m 0 min 0 min 0,0 UV-I 18 W/m 2,6 km/h (1 Bft)
01.05.2013 20:24 16,4 C 15,1 C 61 % 1018,7 hPa 0,0 l/m 0 min 0 min 0,0 UV-I 14 W/m 0,0 km/h (0 Bft)
01.05.2013 20:26 16,4 C 15,1 C 61 % 1018,8 hPa 0,0 l/m 0 min 0 min 0,0 UV-I 12 W/m 0,0 km/h (0 Bft)
01.05.2013 20:28 16,4 C 15,1 C 61 % 1018,8 hPa 0,0 l/m 0 min 0 min 0,0 UV-I 12 W/m 5,1 km/h (1 Bft)
01.05.2013 20:30 16,4 C 15,1 C 61 % 1018,9 hPa 0,0 l/m 0 min 0 min 0,0 UV-I 11 W/m 0,0 km/h (0 Bft)
01.05.2013 20:32 16,4 C 15,1 C 61 % 1018,9 hPa 0,0 l/m 0 min 0 min 0,0 UV-I 11 W/m 2,6 km/h (1 Bft)
01.05.2013 20:34 16,4 C 15,1 C 61 % 1018,9 hPa 0,0 l/m 0 min 0 min 0,0 UV-I 9 W/m 0,0 km/h (0 Bft)
01.05.2013 20:36 16,4 C 15,1 C 61 % 1018,9 hPa 0,0 l/m 0 min 0 min 0,0 UV-I 7 W/m 0,0 km/h (0 Bft)
01.05.2013 20:38 16,4 C 15,1 C 61 % 1018,9 hPa 0,0 l/m 0 min 0 min 0,0 UV-I 7 W/m 0,0 km/h (0 Bft)
01.05.2013 20:40 16,4 C 15,1 C 61 % 1018,9 hPa 0,0 l/m 0 min 0 min 0,0 UV-I 7 W/m 0,0 km/h (0 Bft)
01.05.2013 20:42 16,4 C 14,6 C 61 % 1018,9 hPa 0,0 l/m 0 min 0 min 0,0 UV-I 5 W/m 2,6 km/h (1 Bft)
01.05.2013 20:44 16,4 C 14,6 C 61 % 1019,0 hPa 0,0 l/m 0 min 0 min 0,0 UV-I 5 W/m 5,1 km/h (1 Bft)
01.05.2013 20:46 16,4 C 14,6 C 61 % 1018,9 hPa 0,0 l/m 0 min 0 min 0,0 UV-I 5 W/m 7,7 km/h (2 Bft)
01.05.2013 20:48 16,4 C 15,1 C 61 % 1019,0 hPa 0,0 l/m 0 min 0 min 0,0 UV-I 5 W/m 2,6 km/h (1 Bft)
01.05.2013 20:50 16,4 C 15,1 C 61 % 1018,9 hPa 0,0 l/m 0 min 0 min 0,0 UV-I 0 W/m 0,0 km/h (0 Bft)
01.05.2013 20:52 16,4 C 15,1 C 61 % 1018,9 hPa 0,0 l/m 0 min 0 min 0,0 UV-I 0 W/m 10,3 km/h (2 Bft)
01.05.2013 20:54 16,4 C 15,1 C 61 % 1019,0 hPa 0,0 l/m 0 min 0 min 0,0 UV-I 0 W/m 7,7 km/h (2 Bft)
01.05.2013 20:56 16,4 C 14,6 C 61 % 1018,9 hPa 0,0 l/m 0 min 0 min 0,0 UV-I 0 W/m 2,6 km/h (1 Bft)
01.05.2013 20:58 16,4 C 14,6 C 62 % 1018,9 hPa 0,0 l/m 0 min 0 min 0,0 UV-I 0 W/m 0,0 km/h (0 Bft)
01.05.2013 21:00 16,3 C 14,6 C 62 % 1018,9 hPa 0,0 l/m 0 min 0 min 0,0 UV-I 0 W/m 0,0 km/h (0 Bft)
01.05.2013 21:02 16,3 C 14,6 C 62 % 1019,0 hPa 0,0 l/m 0 min 0 min 0,0 UV-I 0 W/m 0,0 km/h (0 Bft)
01.05.2013 21:04 16,3 C 14,6 C 62 % 1018,9 hPa 0,0 l/m 0 min 0 min 0,0 UV-I 0 W/m 0,0 km/h (0 Bft)
01.05.2013 21:06 16,3 C 14,6 C 62 % 1018,9 hPa 0,0 l/m 0 min 0 min 0,0 UV-I 0 W/m 0,0 km/h (0 Bft)
01.05.2013 21:08 16,3 C 14,6 C 62 % 1018,9 hPa 0,0 l/m 0 min 0 min 0,0 UV-I 0 W/m 0,0 km/h (0 Bft)
01.05.2013 21:10 16,2 C 14,6 C 62 % 1018,9 hPa 0,0 l/m 0 min 0 min 0,0 UV-I 0 W/m 0,0 km/h (0 Bft)
01.05.2013 21:12 16,2 C 14,6 C 63 % 1019,0 hPa 0,0 l/m 0 min 0 min 0,0 UV-I 0 W/m 0,0 km/h (0 Bft)
01.05.2013 21:14 16,2 C 14,6 C 63 % 1018,9 hPa 0,0 l/m 0 min 0 min 0,0 UV-I 0 W/m 0,0 km/h (0 Bft)
01.05.2013 21:16 16,2 C 14,6 C 62 % 1018,9 hPa 0,0 l/m 0 min 0 min 0,0 UV-I 0 W/m 0,0 km/h (0 Bft)
01.05.2013 21:18 16,2 C 14,6 C 63 % 1018,9 hPa 0,0 l/m 0 min 0 min 0,0 UV-I 0 W/m 2,6 km/h (1 Bft)
01.05.2013 21:20 16,1 C 14,6 C 63 % 1018,8 hPa 0,0 l/m 0 min 0 min 0,0 UV-I 0 W/m 0,0 km/h (0 Bft)
01.05.2013 21:22 16,1 C 14,6 C 63 % 1018,8 hPa 0,0 l/m 0 min 0 min 0,0 UV-I 0 W/m 2,6 km/h (1 Bft)
01.05.2013 21:24 16,1 C 14,6 C 63 % 1018,8 hPa 0,0 l/m 0 min 0 min 0,0 UV-I 0 W/m 0,0 km/h (0 Bft)
01.05.2013 21:26 16,0 C 14,6 C 63 % 1018,8 hPa 0,0 l/m 0 min 0 min 0,0 UV-I 0 W/m 2,6 km/h (1 Bft)
01.05.2013 21:28 15,9 C 14,6 C 63 % 1018,8 hPa 0,0 l/m 0 min 0 min 0,0 UV-I 0 W/m 0,0 km/h (0 Bft)
01.05.2013 21:30 15,9 C 14,0 C 63 % 1018,8 hPa 0,0 l/m 0 min 0 min 0,0 UV-I 0 W/m 2,6 km/h (1 Bft)
01.05.2013 21:32 15,9 C 14,0 C 64 % 1018,8 hPa 0,0 l/m 0 min 0 min 0,0 UV-I 0 W/m 0,0 km/h (0 Bft)
01.05.2013 21:34 15,9 C 14,0 C 64 % 1018,8 hPa 0,0 l/m 0 min 0 min 0,0 UV-I 0 W/m 0,0 km/h (0 Bft)
01.05.2013 21:36 15,8 C 14,0 C 64 % 1018,9 hPa 0,0 l/m 0 min 0 min 0,0 UV-I 0 W/m 0,0 km/h (0 Bft)
01.05.2013 21:38 15,8 C 13,4 C 64 % 1018,9 hPa 0,0 l/m 0 min 0 min 0,0 UV-I 0 W/m 0,0 km/h (0 Bft)
01.05.2013 21:40 15,8 C 13,4 C 64 % 1018,9 hPa 0,0 l/m 0 min 0 min 0,0 UV-I 0 W/m 0,0 km/h (0 Bft)
01.05.2013 21:42 15,8 C 13,4 C 64 % 1018,9 hPa 0,0 l/m 0 min 0 min 0,0 UV-I 0 W/m 0,0 km/h (0 Bft)
01.05.2013 21:44 15,8 C 13,4 C 64 % 1019,0 hPa 0,0 l/m 0 min 0 min 0,0 UV-I 0 W/m 0,0 km/h (0 Bft)
01.05.2013 21:46 15,7 C 13,4 C 64 % 1019,0 hPa 0,0 l/m 0 min 0 min 0,0 UV-I 0 W/m 0,0 km/h (0 Bft)
01.05.2013 21:48 15,7 C 13,4 C 64 % 1019,1 hPa 0,0 l/m 0 min 0 min 0,0 UV-I 0 W/m 0,0 km/h (0 Bft)
01.05.2013 21:50 15,7 C 13,4 C 64 % 1019,1 hPa 0,0 l/m 0 min 0 min 0,0 UV-I 0 W/m 0,0 km/h (0 Bft)
01.05.2013 21:52 15,7 C 13,4 C 64 % 1019,1 hPa 0,0 l/m 0 min 0 min 0,0 UV-I 0 W/m 0,0 km/h (0 Bft)
01.05.2013 21:54 15,6 C 13,4 C 64 % 1019,1 hPa 0,0 l/m 0 min 0 min 0,0 UV-I 0 W/m 0,0 km/h (0 Bft)
01.05.2013 21:56 15,6 C 13,4 C 65 % 1019,1 hPa 0,0 l/m 0 min 0 min 0,0 UV-I 0 W/m 0,0 km/h (0 Bft)
01.05.2013 21:58 15,6 C 13,4 C 65 % 1019,1 hPa 0,0 l/m 0 min 0 min 0,0 UV-I 0 W/m 0,0 km/h (0 Bft)
01.05.2013 22:00 15,6 C 13,4 C 65 % 1019,2 hPa 0,0 l/m 0 min 0 min 0,0 UV-I 0 W/m 0,0 km/h (0 Bft)
01.05.2013 22:02 15,5 C 13,4 C 65 % 1019,2 hPa 0,0 l/m 0 min 0 min 0,0 UV-I 0 W/m 0,0 km/h (0 Bft)
01.05.2013 22:04 15,5 C 13,4 C 65 % 1019,3 hPa 0,0 l/m 0 min 0 min 0,0 UV-I 0 W/m 0,0 km/h (0 Bft)
01.05.2013 22:06 15,4 C 13,4 C 65 % 1019,3 hPa 0,0 l/m 0 min 0 min 0,0 UV-I 0 W/m 0,0 km/h (0 Bft)
01.05.2013 22:08 15,4 C 13,4 C 65 % 1019,3 hPa 0,0 l/m 0 min 0 min 0,0 UV-I 0 W/m 2,6 km/h (1 Bft)
01.05.2013 22:10 15,4 C 13,4 C 65 % 1019,3 hPa 0,0 l/m 0 min 0 min 0,0 UV-I 0 W/m 0,0 km/h (0 Bft)
01.05.2013 22:12 15,4 C 13,4 C 65 % 1019,3 hPa 0,0 l/m 0 min 0 min 0,0 UV-I 0 W/m 0,0 km/h (0 Bft)
01.05.2013 22:14 15,3 C 13,4 C 65 % 1019,3 hPa 0,0 l/m 0 min 0 min 0,0 UV-I 0 W/m 2,6 km/h (1 Bft)
01.05.2013 22:16 15,3 C 13,4 C 65 % 1019,3 hPa 0,0 l/m 0 min 0 min 0,0 UV-I 0 W/m 0,0 km/h (0 Bft)
01.05.2013 22:18 15,3 C 13,4 C 65 % 1019,4 hPa 0,0 l/m 0 min 0 min 0,0 UV-I 0 W/m 0,0 km/h (0 Bft)
01.05.2013 22:20 15,3 C 13,4 C 65 % 1019,4 hPa 0,0 l/m 0 min 0 min 0,0 UV-I 0 W/m 0,0 km/h (0 Bft)
01.05.2013 22:22 15,3 C 13,4 C 65 % 1019,4 hPa 0,0 l/m 0 min 0 min 0,0 UV-I 0 W/m 2,6 km/h (1 Bft)
01.05.2013 22:24 15,3 C 13,4 C 65 % 1019,4 hPa 0,0 l/m 0 min 0 min 0,0 UV-I 0 W/m 0,0 km/h (0 Bft)
01.05.2013 22:26 15,3 C 13,4 C 65 % 1019,5 hPa 0,0 l/m 0 min 0 min 0,0 UV-I 0 W/m 0,0 km/h (0 Bft)
01.05.2013 22:28 15,2 C 13,4 C 65 % 1019,5 hPa 0,0 l/m 0 min 0 min 0,0 UV-I 0 W/m 0,0 km/h (0 Bft)
01.05.2013 22:30 15,2 C 13,4 C 65 % 1019,4 hPa 0,0 l/m 0 min 0 min 0,0 UV-I 0 W/m 0,0 km/h (0 Bft)
01.05.2013 22:32 15,2 C 13,4 C 65 % 1019,3 hPa 0,0 l/m 0 min 0 min 0,0 UV-I 0 W/m 0,0 km/h (0 Bft)
01.05.2013 22:34 15,2 C 13,4 C 66 % 1019,3 hPa 0,0 l/m 0 min 0 min 0,0 UV-I 0 W/m 0,0 km/h (0 Bft)
01.05.2013 22:36 15,2 C 13,4 C 66 % 1019,3 hPa 0,0 l/m 0 min 0 min 0,0 UV-I 0 W/m 2,6 km/h (1 Bft)
01.05.2013 22:38 15,2 C 13,4 C 66 % 1019,3 hPa 0,0 l/m 0 min 0 min 0,0 UV-I 0 W/m 0,0 km/h (0 Bft)
01.05.2013 22:40 15,1 C 13,4 C 66 % 1019,3 hPa 0,0 l/m 0 min 0 min 0,0 UV-I 0 W/m 0,0 km/h (0 Bft)
01.05.2013 22:42 15,1 C 13,4 C 66 % 1019,3 hPa 0,0 l/m 0 min 0 min 0,0 UV-I 0 W/m 0,0 km/h (0 Bft)
01.05.2013 22:44 15,1 C 13,4 C 66 % 1019,3 hPa 0,0 l/m 0 min 0 min 0,0 UV-I 0 W/m 2,6 km/h (1 Bft)
01.05.2013 22:46 15,1 C 13,4 C 66 % 1019,3 hPa 0,0 l/m 0 min 0 min 0,0 UV-I 0 W/m 0,0 km/h (0 Bft)
01.05.2013 22:48 15,1 C 13,4 C 66 % 1019,3 hPa 0,0 l/m 0 min 0 min 0,0 UV-I 0 W/m 0,0 km/h (0 Bft)
01.05.2013 22:50 15,1 C 13,4 C 66 % 1019,3 hPa 0,0 l/m 0 min 0 min 0,0 UV-I 0 W/m 2,6 km/h (1 Bft)
01.05.2013 22:52 15,0 C 13,4 C 66 % 1019,3 hPa 0,0 l/m 0 min 0 min 0,0 UV-I 0 W/m 5,1 km/h (1 Bft)
01.05.2013 22:54 15,0 C 13,4 C 65 % 1019,2 hPa 0,0 l/m 0 min 0 min 0,0 UV-I 0 W/m 0,0 km/h (0 Bft)
01.05.2013 22:56 15,0 C 13,4 C 65 % 1019,3 hPa 0,0 l/m 0 min 0 min 0,0 UV-I 0 W/m 2,6 km/h (1 Bft)
01.05.2013 22:58 14,9 C 13,4 C 65 % 1019,2 hPa 0,0 l/m 0 min 0 min 0,0 UV-I 0 W/m 0,0 km/h (0 Bft)
01.05.2013 23:00 14,9 C 13,4 C 65 % 1019,2 hPa 0,0 l/m 0 min 0 min 0,0 UV-I 0 W/m 0,0 km/h (0 Bft)
01.05.2013 23:02 14,9 C 13,4 C 66 % 1019,2 hPa 0,0 l/m 0 min 0 min 0,0 UV-I 0 W/m 0,0 km/h (0 Bft)
01.05.2013 23:04 14,9 C 13,4 C 66 % 1019,2 hPa 0,0 l/m 0 min 0 min 0,0 UV-I 0 W/m 0,0 km/h (0 Bft)
01.05.2013 23:06 14,9 C 13,4 C 66 % 1019,1 hPa 0,0 l/m 0 min 0 min 0,0 UV-I 0 W/m 0,0 km/h (0 Bft)
01.05.2013 23:08 14,9 C 13,4 C 66 % 1019,1 hPa 0,0 l/m 0 min 0 min 0,0 UV-I 0 W/m 0,0 km/h (0 Bft)
01.05.2013 23:10 14,8 C 13,4 C 66 % 1019,1 hPa 0,0 l/m 0 min 0 min 0,0 UV-I 0 W/m 0,0 km/h (0 Bft)
01.05.2013 23:12 14,8 C 13,4 C 66 % 1019,1 hPa 0,0 l/m 0 min 0 min 0,0 UV-I 0 W/m 2,6 km/h (1 Bft)
01.05.2013 23:14 14,8 C 13,4 C 66 % 1019,1 hPa 0,0 l/m 0 min 0 min 0,0 UV-I 0 W/m 0,0 km/h (0 Bft)
01.05.2013 23:16 14,8 C 13,4 C 66 % 1019,2 hPa 0,0 l/m 0 min 0 min 0,0 UV-I 0 W/m 0,0 km/h (0 Bft)
01.05.2013 23:18 14,8 C 13,4 C 66 % 1019,2 hPa 0,0 l/m 0 min 0 min 0,0 UV-I 0 W/m 0,0 km/h (0 Bft)
01.05.2013 23:20 14,8 C 13,4 C 66 % 1019,2 hPa 0,0 l/m 0 min 0 min 0,0 UV-I 0 W/m 0,0 km/h (0 Bft)
01.05.2013 23:22 14,8 C 13,4 C 66 % 1019,2 hPa 0,0 l/m 0 min 0 min 0,0 UV-I 0 W/m 7,7 km/h (2 Bft)
01.05.2013 23:24 14,7 C 13,4 C 66 % 1019,2 hPa 0,0 l/m 0 min 0 min 0,0 UV-I 0 W/m 0,0 km/h (0 Bft)
01.05.2013 23:26 14,7 C 13,4 C 66 % 1019,2 hPa 0,0 l/m 0 min 0 min 0,0 UV-I 0 W/m 2,6 km/h (1 Bft)
01.05.2013 23:28 14,7 C 13,4 C 66 % 1019,2 hPa 0,0 l/m 0 min 0 min 0,0 UV-I 0 W/m 0,0 km/h (0 Bft)
01.05.2013 23:30 14,7 C 13,4 C 66 % 1019,2 hPa 0,0 l/m 0 min 0 min 0,0 UV-I 0 W/m 0,0 km/h (0 Bft)
01.05.2013 23:32 14,6 C 12,9 C 66 % 1019,2 hPa 0,0 l/m 0 min 0 min 0,0 UV-I 0 W/m 2,6 km/h (1 Bft)
01.05.2013 23:34 14,6 C 12,9 C 66 % 1019,2 hPa 0,0 l/m 0 min 0 min 0,0 UV-I 0 W/m 0,0 km/h (0 Bft)
01.05.2013 23:36 14,6 C 12,9 C 67 % 1019,2 hPa 0,0 l/m 0 min 0 min 0,0 UV-I 0 W/m 0,0 km/h (0 Bft)
01.05.2013 23:38 14,6 C 12,9 C 67 % 1019,3 hPa 0,0 l/m 0 min 0 min 0,0 UV-I 0 W/m 0,0 km/h (0 Bft)
01.05.2013 23:40 14,6 C 12,9 C 67 % 1019,3 hPa 0,0 l/m 0 min 0 min 0,0 UV-I 0 W/m 0,0 km/h (0 Bft)
01.05.2013 23:42 14,6 C 12,9 C 67 % 1019,3 hPa 0,0 l/m 0 min 0 min 0,0 UV-I 0 W/m 0,0 km/h (0 Bft)
01.05.2013 23:44 14,5 C 12,9 C 67 % 1019,4 hPa 0,0 l/m 0 min 0 min 0,0 UV-I 0 W/m 0,0 km/h (0 Bft)
01.05.2013 23:46 14,5 C 12,9 C 67 % 1019,4 hPa 0,0 l/m 0 min 0 min 0,0 UV-I 0 W/m 2,6 km/h (1 Bft)
01.05.2013 23:48 14,4 C 12,9 C 67 % 1019,4 hPa 0,0 l/m 0 min 0 min 0,0 UV-I 0 W/m 0,0 km/h (0 Bft)
01.05.2013 23:50 14,4 C 12,9 C 67 % 1019,4 hPa 0,0 l/m 0 min 0 min 0,0 UV-I 0 W/m 0,0 km/h (0 Bft)
01.05.2013 23:52 14,4 C 12,9 C 67 % 1019,4 hPa 0,0 l/m 0 min 0 min 0,0 UV-I 0 W/m 0,0 km/h (0 Bft)
01.05.2013 23:54 14,3 C 12,9 C 67 % 1019,3 hPa 0,0 l/m 0 min 0 min 0,0 UV-I 0 W/m 2,6 km/h (1 Bft)
01.05.2013 23:56 14,3 C 12,9 C 67 % 1019,3 hPa 0,0 l/m 0 min 0 min 0,0 UV-I 0 W/m 0,0 km/h (0 Bft)
01.05.2013 23:58 14,3 C 12,9 C 67 % 1019,3 hPa 0,0 l/m 0 min 0 min 0,0 UV-I 0 W/m 2,6 km/h (1 Bft)
_ Min-Zeit 06:42 05:58 16:38 19:42 - - - - - 00:02
Minimum _ 7,3 C 6,2 C 51 % 1018,0 hPa - - - - - 0,0 km/h (0 Bft)
_ Max-Zeit 16:35 12:26 07:22 02:02 13:48 09:52 00:00 13:40 13:40 16:20
Maximum _ 20,4 C 24,6 C 83 % 1023,7 hPa 0,2 l/m 2 min 0 min 4,6 UV-I 1072 W/m 33,5 km/h
SO (5 Bft)
Durchschnitt _ 13,4 C 13,7 C 67 % 1021,2 hPa #0,2 l/m #5:19 h #0 min. 2,1 UV-I 330 W/m 5,4 km/h (1 Bft)
© 2013 W. Hausmann